DW7501 Weather Reports


Display with metric or nautical units.
time (UTC)temp
F
wind
direction
speed
MPH
gust
MPH
rain 1hr
in
rain 24hr
in
rain mn
in
humidity
%
barometer
mb
20210415150958 36 355 2.0 12.0 0.00 0.34 0.12 54 1011.1
20210415150916 36 355 2.0 12.0 0.00 0.34 0.12 54 1011.1
20210415150819 36 355 2.0 11.0 0.00 0.34 0.12 54 1011.0
20210415150703 36 356 2.0 11.0 0.00 0.34 0.12 54 1011.0
20210415150549 36 7 2.0 11.0 0.00 0.34 0.12 54 1011.0
20210415150445 36 6 2.0 11.0 0.00 0.35 0.12 54 1011.0
20210415150419 36 3 2.0 11.0 0.00 0.35 0.12 54 1011.0
20210415150302 36 3 2.0 11.0 0.00 0.35 0.12 54 1011.0
20210415150158 36 358 2.0 11.0 0.00 0.35 0.12 54 1011.0
20210415150041 36 359 2.0 11.0 0.00 0.35 0.12 54 1011.0
20210415145937 36 358 2.0 11.0 0.00 0.35 0.12 54 1011.0
20210415145741 36 355 2.0 10.0 0.00 0.35 0.12 54 1011.0
20210415145447 36 354 2.0 10.0 0.00 0.35 0.12 54 1011.0
20210415145248 36 357 2.0 10.0 0.00 0.35 0.12 54 1011.0
20210415144651 36 358 2.0 10.0 0.00 0.36 0.12 54 1011.0
20210415144511 36 359 2.0 9.0 0.00 0.36 0.12 54 1011.0
20210415144359 36 357 2.0 9.0 0.00 0.36 0.12 54 1011.0
20210415144257 36 359 2.0 9.0 0.00 0.36 0.12 54 1011.0
20210415144155 36 2 2.0 9.0 0.00 0.36 0.12 54 1011.0
20210415144056 36 1 2.0 9.0 0.00 0.36 0.12 54 1011.0
20210415144027 36 359 2.0 9.0 0.00 0.36 0.12 54 1011.0
20210415143856 36 4 2.0 9.0 0.00 0.36 0.12 54 1011.0
20210415143835 36 4 2.0 9.0 0.00 0.36 0.12 54 1010.9
20210415143742 36 3 2.0 9.0 0.00 0.37 0.12 54 1010.9
20210415143708 36 2 2.0 8.0 0.00 0.37 0.12 54 1010.9
20210415143634 36 1 2.0 8.0 0.00 0.37 0.12 54 1010.9
20210415143552 36 359 2.0 8.0 0.00 0.37 0.12 54 1010.9
20210415143538 36 358 2.0 8.0 0.00 0.37 0.12 54 1010.9
20210415143519 36 359 2.0 8.0 0.00 0.37 0.12 54 1010.9
20210415143435 36 353 2.0 9.0 0.00 0.37 0.12 54 1010.9
20210415143134 36 353 2.0 9.0 0.00 0.37 0.12 54 1010.9
20210415143119 36 353 2.0 9.0 0.00 0.37 0.12 54 1010.9
20210415143101 36 352 2.0 9.0 0.00 0.38 0.12 54 1010.9
20210415143050 36 352 2.0 9.0 0.00 0.38 0.12 54 1010.9
20210415143037 36 355 2.0 9.0 0.00 0.38 0.12 54 1010.9
20210415142958 36 358 2.0 9.0 0.00 0.38 0.12 54 1010.9
20210415142936 36 2 2.0 9.0 0.00 0.38 0.12 54 1010.9
20210415142835 36 356 2.0 9.0 0.00 0.38 0.12 54 1010.9
20210415142821 36 356 2.0 9.0 0.01 0.38 0.12 54 1010.9
20210415142705 36 4 2.0 8.0 0.01 0.38 0.12 54 1010.9
20210415142425 36 359 2.0 8.0 0.01 0.38 0.12 54 1010.9
20210415142227 36 1 2.0 8.0 0.01 0.38 0.12 54 1010.9
20210415141845 36 2 2.0 5.0 0.01 0.38 0.12 54 1010.9
20210415141657 36 1 2.0 6.0 0.01 0.38 0.12 54 1010.9
20210415141555 36 354 2.0 6.0 0.01 0.38 0.12 54 1010.9
20210415141519 36 348 2.0 6.0 0.01 0.38 0.12 54 1010.9
20210415141435 36 344 2.0 11.0 0.01 0.38 0.12 54 1010.8
20210415141336 36 346 2.0 11.0 0.01 0.38 0.12 54 1010.9
20210415141158 36 348 2.0 11.0 0.01 0.38 0.12 54 1010.8
20210415141100 36 353 2.0 11.0 0.01 0.39 0.12 54 1010.8
20210415140959 36 358 3.0 11.0 0.01 0.39 0.12 54 1010.8
20210415140906 36 355 3.0 11.0 0.01 0.39 0.12 54 1010.8
20210415140811 36 352 3.0 11.0 0.01 0.39 0.12 54 1010.8
20210415140657 36 353 2.0 11.0 0.01 0.39 0.12 54 1010.8
20210415140618 36 355 2.0 11.0 0.01 0.39 0.12 54 1010.8
20210415140459 36 359 2.0 11.0 0.01 0.39 0.12 54 1010.8
20210415140418 36 358 2.0 8.0 0.01 0.39 0.12 54 1010.8
20210415140318 36 2 2.0 8.0 0.01 0.39 0.12 54 1010.8
20210415140230 36 1 2.0 8.0 0.01 0.39 0.12 54 1010.8
20210415140055 36 357 2.0 8.0 0.01 0.39 0.12 54 1010.7
20210415140022 35 356 3.0 10.0 0.01 0.40 0.12 54 1010.7
20210415135945 35 357 3.0 10.0 0.01 0.40 0.12 54 1010.7
20210415135917 35 353 3.0 10.0 0.01 0.40 0.12 54 1010.7
20210415135825 35 354 3.0 10.0 0.01 0.40 0.12 54 1010.8
20210415135441 35 349 3.0 10.0 0.01 0.40 0.12 54 1010.7
20210415134927 35 351 3.0 10.0 0.01 0.40 0.12 54 1010.6
20210415134700 35 352 3.0 10.0 0.01 0.40 0.12 54 1010.6
20210415134558 35 353 3.0 10.0 0.01 0.40 0.12 54 1010.7
20210415134457 35 354 3.0 10.0 0.01 0.40 0.12 54 1010.6
20210415134358 35 353 3.0 9.0 0.01 0.40 0.12 54 1010.6
20210415134317 36 352 3.0 9.0 0.01 0.40 0.12 54 1010.7
20210415134218 36 350 3.0 9.0 0.01 0.40 0.12 54 1010.6
20210415134101 36 355 3.0 9.0 0.01 0.40 0.12 54 1010.7
20210415133957 36 356 3.0 9.0 0.01 0.41 0.12 54 1010.7
20210415133855 36 3 3.0 9.0 0.01 0.41 0.12 54 1010.7
20210415133759 36 4 3.0 9.0 0.01 0.41 0.12 54 1010.7
20210415133712 36 4 3.0 9.0 0.01 0.41 0.12 54 1010.7
20210415133555 35 4 3.0 9.0 0.01 0.41 0.12 54 1010.8
20210415133456 36 5 3.0 9.0 0.01 0.41 0.12 54 1010.7
20210415133307 35 356 3.0 11.0 0.01 0.40 0.11 54 1010.6
20210415133230 35 356 3.0 11.0 0.01 0.40 0.11 54 1010.5
20210415133115 35 356 3.0 11.0 0.01 0.40 0.11 54 1010.6
20210415133050 35 357 3.0 11.0 0.01 0.40 0.11 54 1010.5
20210415133022 35 354 3.0 11.0 0.01 0.40 0.11 54 1010.6
20210415132858 35 352 3.0 12.0 0.01 0.40 0.11 54 1010.5
20210415132155 35 351 3.0 12.0 0.01 0.40 0.11 54 1010.6
20210415131547 35 351 3.0 12.0 0.01 0.40 0.11 54 1010.5
20210415131426 35 352 3.0 12.0 0.01 0.40 0.11 54 1010.5
20210415131300 35 350 3.0 12.0 0.01 0.40 0.11 54 1010.5
20210415131209 35 351 3.0 12.0 0.01 0.40 0.11 54 1010.5
20210415131114 35 351 2.0 12.0 0.01 0.40 0.11 54 1010.5
20210415131012 35 346 2.0 12.0 0.01 0.40 0.11 54 1010.4
20210415130855 35 347 2.0 12.0 0.01 0.40 0.11 54 1010.4
20210415130807 35 344 2.0 12.0 0.01 0.40 0.11 54 1010.4
20210415130709 35 349 2.0 10.0 0.01 0.40 0.11 54 1010.4
20210415130617 35 352 2.0 10.0 0.01 0.40 0.11 54 1010.4
20210415130530 35 352 2.0 10.0 0.01 0.40 0.11 54 1010.4
20210415130426 35 351 2.0 10.0 0.01 0.40 0.11 54 1010.3
20210415130341 35 355 2.0 10.0 0.01 0.40 0.11 54 1010.5
20210415130254 35 355 2.0 10.0 0.01 0.40 0.11 54 1010.4
20210415130106 35 353 2.0 10.0 0.01 0.40 0.11 54 1010.3
20210415130023 35 357 2.0 10.0 0.01 0.40 0.11 54 1010.3
20210415125905 35 355 3.0 10.0 0.01 0.40 0.11 54 1010.4
20210415125654 35 358 3.0 10.0 0.01 0.40 0.11 54 1010.4
20210415125417 35 359 3.0 10.0 0.01 0.40 0.11 54 1010.3
20210415125107 35 356 3.0 10.0 0.01 0.40 0.11 54 1010.3
20210415124700 35 354 3.0 10.0 0.01 0.40 0.11 54 1010.4
20210415124555 35 346 3.0 10.0 0.01 0.40 0.11 54 1010.4
20210415124426 35 347 2.0 10.0 0.02 0.40 0.11 54 1010.4
20210415124310 35 349 2.0 10.0 0.02 0.40 0.11 54 1010.4
20210415124157 35 345 2.0 10.0 0.02 0.40 0.11 54 1010.4
20210415124110 35 344 2.0 10.0 0.02 0.40 0.11 54 1010.3
20210415124021 35 345 2.0 8.0 0.02 0.40 0.11 54 1010.3
20210415123903 35 348 2.0 8.0 0.02 0.40 0.11 54 1010.3
20210415123843 35 350 2.0 8.0 0.02 0.40 0.11 54 1010.4
20210415123758 35 355 2.0 8.0 0.02 0.40 0.11 54 1010.3
20210415123658 35 6 2.0 8.0 0.02 0.40 0.11 54 1010.3
20210415123548 35 17 2.0 8.0 0.01 0.39 0.10 54 1010.3
20210415123422 35 14 2.0 8.0 0.01 0.39 0.10 54 1010.3
20210415123208 36 13 1.0 9.0 0.02 0.39 0.10 54 1010.3
20210415123033 36 12 1.0 10.0 0.02 0.39 0.10 54 1010.3
20210415122540 36 14 2.0 12.0 0.02 0.39 0.10 54 1010.2
20210415122102 36 16 2.0 12.0 0.02 0.39 0.10 54 1010.3
20210415121733 36 14 2.0 12.0 0.02 0.39 0.10 54 1010.2
20210415121518 36 11 1.0 12.0 0.02 0.39 0.10 54 1010.2
20210415121425 36 8 2.0 12.0 0.02 0.39 0.10 54 1010.1
20210415121310 36 6 2.0 12.0 0.02 0.39 0.10 54 1010.1
20210415121217 36 7 2.0 12.0 0.02 0.39 0.10 54 1010.1
20210415121119 36 6 2.0 12.0 0.02 0.39 0.10 54 1010.1
20210415121027 36 7 2.0 12.0 0.02 0.39 0.10 54 1010.1
20210415120924 36 6 2.0 12.0 0.02 0.39 0.10 54 1010.1
20210415120833 36 4 2.0 8.0 0.02 0.39 0.10 54 1010.1
20210415120714 36 357 2.0 8.0 0.02 0.39 0.10 54 1010.1
20210415120620 36 355 3.0 10.0 0.02 0.39 0.10 54 1010.1
20210415120508 36 356 3.0 10.0 0.02 0.39 0.10 54 1010.1
20210415120417 36 355 2.0 10.0 0.02 0.39 0.10 54 1010.1
20210415120255 36 357 2.0 10.0 0.02 0.39 0.10 54 1010.1
20210415120144 36 345 1.0 8.0 0.02 0.39 0.10 54 1010.1
20210415120119 36 347 1.0 8.0 0.02 0.39 0.10 54 1010.1
20210415120057 36 343 1.0 8.0 0.02 0.39 0.10 54 1010.1
20210415120021 36 333 1.0 8.0 0.02 0.39 0.10 54 1010.0
20210415115921 36 316 1.0 8.0 0.02 0.39 0.10 54 1010.0
20210415115748 36 278 0.0 8.0 0.02 0.39 0.10 54 1010.1
20210415115401 36 283 0.0 8.0 0.02 0.39 0.10 54 1010.1
20210415115034 36 286 0.0 8.0 0.02 0.39 0.10 54 1010.0
20210415114655 36 288 0.0 8.0 0.02 0.39 0.10 54 1010.1
20210415114556 36 299 0.0 8.0 0.02 0.39 0.10 54 1010.0
20210415114522 36 316 0.0 2.0 0.02 0.39 0.10 54 1010.1
20210415114357 36 316 0.0 2.0 0.01 0.38 0.09 54 1010.0
20210415114257 36 315 0.0 2.0 0.01 0.38 0.09 54 1010.0
20210415114215 36 316 0.0 2.0 0.01 0.38 0.09 54 1010.0
20210415114057 36 325 0.0 2.0 0.01 0.38 0.09 54 1010.1
20210415113959 36 325 0.0 2.0 0.01 0.38 0.09 54 1010.0
20210415113859 36 352 0.0 3.0 0.01 0.38 0.09 54 1010.0
20210415113759 36 9 0.0 3.0 0.01 0.38 0.09 54 1009.9
20210415113655 36 18 1.0 3.0 0.01 0.38 0.09 54 1010.0
20210415113557 36 24 1.0 3.0 0.01 0.38 0.09 54 1010.0
20210415113510 36 25 1.0 5.0 0.00 0.37 0.08 54 1009.8
20210415113353 36 22 1.0 5.0 0.00 0.37 0.08 54 1009.8
20210415113301 36 21 1.0 5.0 0.00 0.37 0.08 54 1009.8
20210415113220 36 18 1.0 5.0 0.01 0.37 0.08 54 1009.8
20210415113127 36 16 1.0 4.0 0.01 0.37 0.08 54 1009.8
20210415113042 36 16 1.0 4.0 0.01 0.37 0.08 54 1009.8
20210415112957 36 16 1.0 4.0 0.01 0.37 0.08 54 1009.8
20210415112850 36 15 1.0 4.0 0.01 0.37 0.08 54 1009.7
20210415112452 36 16 1.0 4.0 0.01 0.37 0.08 54 1009.7
20210415112055 36 16 1.0 4.0 0.01 0.37 0.08 54 1009.7
20210415111651 35 17 1.0 4.0 0.01 0.37 0.08 55 1009.7
20210415111532 35 19 1.0 4.0 0.01 0.37 0.08 55 1009.7
20210415111400 35 20 1.0 4.0 0.01 0.37 0.08 55 1009.7
20210415111309 35 27 0.0 4.0 0.01 0.37 0.08 55 1009.6
20210415111201 35 27 1.0 4.0 0.01 0.37 0.08 55 1009.6
20210415111128 35 27 1.0 4.0 0.01 0.37 0.08 55 1009.6
20210415110956 35 28 1.0 4.0 0.01 0.37 0.08 55 1009.5
20210415110855 35 29 1.0 4.0 0.01 0.37 0.08 55 1009.5
20210415110819 35 29 1.0 4.0 0.01 0.37 0.08 55 1009.6
20210415110707 35 29 1.0 4.0 0.01 0.37 0.08 55 1009.6
20210415110622 35 30 1.0 4.0 0.01 0.37 0.08 55 1009.7
20210415110456 35 33 1.0 4.0 0.01 0.37 0.08 55 1009.6
20210415110418 35 34 1.0 4.0 0.01 0.37 0.08 55 1009.6
20210415110254 35 35 1.0 4.0 0.01 0.37 0.08 55 1009.7
20210415110159 35 36 1.0 4.0 0.01 0.37 0.08 55 1009.7
20210415110055 35 30 1.0 4.0 0.01 0.37 0.08 55 1009.7
20210415105938 35 352 1.0 5.0 0.02 0.37 0.08 55 1009.5
20210415105921 35 355 1.0 5.0 0.02 0.37 0.08 55 1009.6
20210415105851 35 358 1.0 5.0 0.02 0.37 0.08 55 1009.5
20210415105740 35 4 1.0 5.0 0.02 0.37 0.08 55 1009.5
20210415105547 35 7 1.0 5.0 0.02 0.37 0.08 55 1009.5
20210415105220 35 10 1.0 5.0 0.02 0.37 0.08 55 1009.5
20210415104845 35 15 1.0 5.0 0.02 0.37 0.08 55 1009.5
20210415104632 35 17 1.0 5.0 0.02 0.37 0.08 55 1009.5
20210415104456 35 21 1.0 5.0 0.02 0.37 0.08 55 1009.5
20210415104358 35 22 1.0 5.0 0.02 0.37 0.08 55 1009.5
20210415104303 35 21 1.0 5.0 0.02 0.37 0.08 55 1009.5
20210415104201 35 20 1.0 5.0 0.02 0.37 0.08 55 1009.5
20210415104109 35 20 1.0 5.0 0.02 0.37 0.08 55 1009.5
20210415103959 35 22 0.0 5.0 0.02 0.37 0.08 55 1009.5
20210415103854 35 23 0.0 5.0 0.02 0.37 0.08 55 1009.5
20210415103758 35 24 0.0 5.0 0.02 0.37 0.08 55 1009.5
20210415103656 35 24 0.0 5.0 0.02 0.37 0.08 55 1009.5
20210415103618 35 24 0.0 5.0 0.02 0.37 0.08 55 1009.5
20210415103547 34 25 0.0 4.0 0.03 0.37 0.08 56 1009.4
20210415103519 34 25 0.0 4.0 0.03 0.37 0.08 56 1009.4
20210415103420 34 21 0.0 4.0 0.03 0.37 0.08 55 1009.4
20210415103257 34 19 0.0 4.0 0.02 0.36 0.07 55 1009.3
20210415103109 34 18 1.0 4.0 0.02 0.36 0.07 55 1009.4
20210415102843 34 18 1.0 4.0 0.02 0.36 0.07 55 1009.3
20210415102628 34 14 1.0 4.0 0.02 0.36 0.07 55 1009.4
20210415101959 34 14 1.0 4.0 0.02 0.36 0.07 55 1009.4
20210415101913 34 13 1.0 4.0 0.02 0.36 0.07 55 1009.3
20210415101835 34 13 1.0 4.0 0.02 0.36 0.07 55 1009.4
20210415101819 34 11 1.0 4.0 0.02 0.36 0.07 55 1009.4
20210415101639 34 11 1.0 4.0 0.02 0.36 0.07 55 1009.4
20210415101516 34 10 1.0 4.0 0.02 0.36 0.07 55 1009.4
20210415101358 34 8 1.0 4.0 0.02 0.36 0.07 56 1009.4
20210415101302 34 9 1.0 4.0 0.02 0.36 0.07 56 1009.3
20210415101209 35 13 1.0 4.0 0.02 0.36 0.07 56 1009.3
20210415101058 35 17 1.0 4.0 0.02 0.36 0.07 56 1009.3
20210415101021 35 20 1.0 4.0 0.02 0.36 0.07 56 1009.3
20210415100856 35 22 1.0 4.0 0.02 0.36 0.07 56 1009.3
20210415100756 35 18 1.0 4.0 0.02 0.36 0.07 56 1009.3
20210415100658 35 16 1.0 4.0 0.02 0.36 0.07 56 1009.3
20210415100622 35 14 1.0 4.0 0.02 0.36 0.07 56 1009.3
20210415100457 35 9 1.0 4.0 0.02 0.36 0.07 56 1009.3
20210415100358 35 8 1.0 4.0 0.02 0.36 0.07 55 1009.3
20210415100320 35 2 1.0 4.0 0.02 0.36 0.07 55 1009.2
20210415100232 35 349 1.0 4.0 0.02 0.36 0.07 55 1009.2
20210415100056 35 356 1.0 5.0 0.01 0.35 0.06 55 1009.3
20210415100024 35 1 1.0 5.0 0.01 0.35 0.06 55 1009.3
20210415095935 35 1 1.0 5.0 0.01 0.35 0.06 55 1009.2
20210415095915 35 359 1.0 5.0 0.01 0.35 0.06 56 1009.2
20210415095858 35 358 1.0 5.0 0.01 0.35 0.06 56 1009.2
20210415095647 35 353 0.0 4.0 0.01 0.35 0.06 56 1009.3
20210415094952 35 354 0.0 4.0 0.01 0.35 0.06 56 1009.3
20210415094532 35 355 0.0 4.0 0.01 0.35 0.06 56 1009.3
20210415094358 35 355 0.0 4.0 0.01 0.35 0.06 56 1009.3
20210415094258 35 354 0.0 4.0 0.01 0.35 0.06 56 1009.3
20210415094217 35 346 0.0 4.0 0.01 0.35 0.06 56 1009.3
20210415094109 35 288 0.0 2.0 0.01 0.35 0.06 56 1009.3
20210415093959 35 288 0.0 2.0 0.01 0.35 0.06 56 1009.3
20210415093857 35 288 0.0 2.0 0.01 0.35 0.06 56 1009.3
20210415093811 35 286 0.0 2.0 0.01 0.35 0.06 56 1009.3
20210415093655 35 286 0.0 2.0 0.01 0.35 0.06 56 1009.3
20210415093556 35 285 0.0 2.0 0.01 0.35 0.06 56 1009.3
20210415093435 35 287 0.0 2.0 0.00 0.34 0.05 56 1009.3
20210415093349 35 285 0.0 3.0 0.00 0.34 0.05 56 1009.3
20210415093313 35 285 0.0 3.0 0.00 0.34 0.05 56 1009.3
20210415093239 35 285 0.0 3.0 0.00 0.34 0.05 56 1009.3
20210415093140 35 285 0.0 3.0 0.00 0.34 0.05 56 1009.3
20210415093120 35 285 0.0 3.0 0.00 0.34 0.05 56 1009.3
20210415093108 35 285 0.0 3.0 0.00 0.34 0.05 56 1009.3
20210415093058 35 285 0.0 3.0 0.00 0.34 0.05 56 1009.3
20210415092811 35 285 0.0 3.0 0.00 0.34 0.05 56 1009.3
20210415092443 35 285 0.0 3.0 0.00 0.34 0.05 56 1009.3
20210415092307 35 284 0.0 3.0 0.00 0.34 0.05 56 1009.3
20210415091932 35 285 0.0 3.0 0.00 0.34 0.05 56 1009.3
20210415091705 35 284 0.0 3.0 0.00 0.34 0.05 56 1009.3
20210415091600 35 284 0.0 4.0 0.00 0.34 0.05 56 1009.3
20210415091513 35 284 0.0 4.0 0.00 0.34 0.05 56 1009.3
20210415091355 35 284 0.0 4.0 0.00 0.34 0.05 56 1009.3
20210415091257 35 284 0.0 4.0 0.00 0.34 0.05 56 1009.3
20210415091158 35 284 0.0 4.0 0.00 0.34 0.05 56 1009.3
20210415091117 35 284 0.0 4.0 0.00 0.34 0.05 56 1009.3
20210415090955 35 284 0.0 4.0 0.00 0.34 0.05 56 1009.3
20210415090855 35 283 0.0 4.0 0.00 0.34 0.05 56 1009.3
20210415090819 35 283 1.0 4.0 0.00 0.34 0.05 56 1009.3
20210415090655 35 283 1.0 4.0 0.00 0.34 0.05 56 1009.3
20210415090601 35 283 1.0 4.0 0.00 0.34 0.05 56 1009.3
20210415090525 35 283 1.0 3.0 0.00 0.34 0.05 56 1009.3
20210415090356 35 283 1.0 3.0 0.00 0.34 0.05 56 1009.3
20210415090255 35 283 1.0 3.0 0.00 0.34 0.05 56 1009.3
20210415090100 35 283 0.0 2.0 0.00 0.34 0.05 56 1009.3
20210415090026 35 283 0.0 2.0 0.01 0.34 0.05 56 1009.3
20210415085957 35 283 0.0 2.0 0.01 0.34 0.05 56 1009.3
20210415085934 35 282 0.0 4.0 0.01 0.34 0.05 56 1009.3
20210415085924 35 283 0.0 6.0 0.01 0.34 0.05 56 1009.3
20210415085845 35 283 1.0 6.0 0.01 0.34 0.05 56 1009.3
20210415085819 35 283 1.0 6.0 0.01 0.34 0.05 56 1009.3
20210415085640 35 279 1.0 6.0 0.01 0.34 0.05 56 1009.2
20210415085420 35 279 1.0 6.0 0.01 0.34 0.05 56 1009.3
20210415085055 35 279 1.0 6.0 0.01 0.34 0.05 56 1009.3
20210415084636 35 279 1.0 6.0 0.01 0.34 0.05 56 1009.3
20210415084457 35 279 1.0 6.0 0.01 0.34 0.05 56 1009.3
20210415084355 35 279 1.0 6.0 0.01 0.34 0.05 56 1009.3
20210415084310 35 279 1.0 6.0 0.01 0.34 0.05 56 1009.3
20210415084201 35 278 1.0 6.0 0.01 0.34 0.05 56 1009.3
20210415084055 35 278 1.0 6.0 0.01 0.34 0.05 56 1009.2
20210415083956 35 276 1.0 6.0 0.01 0.34 0.05 56 1009.2
20210415083918 35 281 1.0 4.0 0.01 0.34 0.05 56 1009.2
20210415083815 35 285 1.0 4.0 0.01 0.34 0.05 56 1009.3
20210415083736 35 287 1.0 4.0 0.01 0.34 0.05 56 1009.3
20210415083705 35 288 1.0 4.0 0.01 0.34 0.05 56 1009.3
20210415083639 35 292 1.0 4.0 0.01 0.34 0.05 56 1009.3
20210415083600 35 295 1.0 4.0 0.01 0.34 0.05 56 1009.3
20210415083540 35 294 1.0 4.0 0.01 0.34 0.05 56 1009.2
20210415083459 35 295 1.0 4.0 0.01 0.34 0.05 56 1009.2
20210415083433 35 297 1.0 4.0 0.01 0.34 0.05 56 1009.2
20210415083322 35 296 1.0 4.0 0.01 0.34 0.05 56 1009.2
20210415083245 35 308 0.0 3.0 0.01 0.34 0.05 56 1009.2
20210415083216 35 307 0.0 3.0 0.01 0.34 0.05 56 1009.2
20210415083132 35 307 0.0 3.0 0.01 0.34 0.05 56 1009.2
20210415083106 35 305 0.0 3.0 0.01 0.34 0.05 56 1009.2
20210415082958 35 294 0.0 4.0 0.01 0.34 0.05 56 1009.3
20210415082941 35 294 0.0 4.0 0.01 0.34 0.05 56 1009.3
20210415082924 35 290 0.0 4.0 0.01 0.34 0.05 56 1009.3
20210415082839 35 290 1.0 4.0 0.01 0.34 0.05 56 1009.3
20210415082751 35 289 1.0 4.0 0.01 0.34 0.05 56 1009.4
20210415082530 35 289 1.0 4.0 0.01 0.34 0.05 56 1009.3
20210415082329 35 288 1.0 4.0 0.01 0.34 0.05 56 1009.3
20210415082120 35 287 1.0 6.0 0.01 0.34 0.05 56 1009.4
20210415081856 35 284 1.0 6.0 0.01 0.34 0.05 56 1009.4
20210415081652 35 283 1.0 6.0 0.01 0.34 0.05 56 1009.4
20210415081457 35 280 1.0 6.0 0.01 0.34 0.05 56 1009.5
20210415081359 35 278 2.0 6.0 0.01 0.34 0.05 56 1009.4
20210415081255 35 278 2.0 6.0 0.01 0.34 0.05 56 1009.5
20210415081204 35 278 2.0 6.0 0.01 0.34 0.05 56 1009.4
20210415081058 35 281 2.0 7.0 0.01 0.34 0.05 56 1009.5
20210415080954 35 280 3.0 7.0 0.01 0.34 0.05 56 1009.4
20210415080910 35 280 3.0 7.0 0.01 0.34 0.05 56 1009.4
20210415080755 35 280 3.0 7.0 0.01 0.34 0.05 57 1009.4
20210415080704 35 281 3.0 7.0 0.01 0.34 0.05 57 1009.4
20210415080647 35 282 3.0 7.0 0.01 0.34 0.05 57 1009.4
20210415080511 35 283 3.0 8.0 0.01 0.34 0.05 57 1009.4
20210415080421 35 282 4.0 8.0 0.01 0.34 0.05 57 1009.4
20210415080256 35 282 3.0 8.0 0.01 0.34 0.05 57 1009.4
20210415080153 35 279 4.0 10.0 0.00 0.33 0.04 57 1009.4
20210415080127 35 278 4.0 10.0 0.00 0.33 0.04 57 1009.4
20210415080050 35 277 4.0 10.0 0.00 0.33 0.04 57 1009.4
20210415075939 35 277 4.0 10.0 0.00 0.33 0.04 57 1009.4
20210415075742 35 277 4.0 10.0 0.00 0.33 0.04 57 1009.4
20210415075123 35 277 4.0 10.0 0.00 0.33 0.04 57 1009.4
20210415074659 35 277 4.0 10.0 0.00 0.33 0.04 57 1009.4
20210415074625 35 278 3.0 7.0 0.00 0.33 0.04 57 1009.4
20210415074508 35 280 3.0 8.0 0.00 0.33 0.04 57 1009.4
20210415074358 35 279 4.0 9.0 0.00 0.33 0.04 57 1009.4
20210415074300 35 278 4.0 9.0 0.00 0.33 0.04 57 1009.3
20210415074157 35 279 4.0 9.0 0.00 0.33 0.04 57 1009.3
20210415074057 35 279 5.0 9.0 0.00 0.33 0.04 57 1009.3
20210415073959 35 279 5.0 9.0 0.00 0.33 0.04 57 1009.3
20210415073855 35 280 5.0 9.0 0.00 0.33 0.04 57 1009.3
20210415073755 35 280 5.0 9.0 0.00 0.33 0.04 57 1009.3
20210415073717 35 280 5.0 9.0 0.00 0.33 0.04 57 1009.3
20210415073555 35 280 5.0 9.0 0.00 0.33 0.04 57 1009.3
20210415073459 35 279 5.0 9.0 0.00 0.33 0.04 57 1009.4
20210415073356 35 279 5.0 9.0 0.00 0.33 0.04 57 1009.3
20210415073255 35 279 5.0 9.0 0.00 0.33 0.04 57 1009.4
20210415073158 35 278 5.0 9.0 0.00 0.33 0.04 57 1009.4
20210415073120 35 278 5.0 9.0 0.00 0.33 0.04 57 1009.3
20210415072959 35 278 5.0 9.0 0.00 0.33 0.04 57 1009.3
20210415072928 35 278 4.0 9.0 0.00 0.33 0.04 57 1009.3
20210415072921 35 280 4.0 9.0 0.00 0.33 0.04 57 1009.4
20210415072914 35 280 4.0 9.0 0.00 0.33 0.04 57 1009.4
20210415072855 35 279 4.0 8.0 0.00 0.33 0.04 57 1009.3
20210415072845 35 278 3.0 8.0 0.00 0.33 0.04 57 1009.4
20210415072836 35 278 3.0 8.0 0.00 0.33 0.04 57 1009.4
20210415072631 35 278 3.0 8.0 0.00 0.33 0.04 57 1009.4
20210415072257 35 277 3.0 8.0 0.00 0.33 0.04 57 1009.4
20210415071729 35 277 3.0 8.0 0.00 0.33 0.04 57 1009.4
20210415071641 35 278 4.0 8.0 0.00 0.33 0.04 57 1009.4
20210415071556 35 279 3.0 8.0 0.00 0.33 0.04 57 1009.4
20210415071524 35 279 3.0 8.0 0.00 0.33 0.04 57 1009.4
20210415071352 35 279 3.0 7.0 0.00 0.33 0.04 57 1009.4
20210415071140 35 280 3.0 7.0 0.00 0.33 0.04 57 1009.5
20210415071112 35 282 3.0 7.0 0.00 0.33 0.04 57 1009.5
20210415071057 35 283 2.0 7.0 0.00 0.33 0.04 57 1009.6
20210415071022 35 283 2.0 7.0 0.00 0.33 0.04 57 1009.6
20210415070834 35 286 2.0 6.0 0.01 0.33 0.04 57 1009.6
20210415070717 35 286 2.0 6.0 0.01 0.33 0.04 57 1009.6
20210415070657 35 285 2.0 6.0 0.01 0.33 0.04 58 1009.6
20210415070543 35 284 1.0 6.0 0.01 0.33 0.04 58 1009.6
20210415070325 35 282 1.0 6.0 0.01 0.33 0.04 58 1009.6
20210415070254 35 281 1.0 6.0 0.01 0.33 0.04 58 1009.6
20210415070122 35 281 1.0 6.0 0.01 0.33 0.04 58 1009.7
20210415070105 35 281 1.0 6.0 0.01 0.33 0.04 58 1009.7
20210415070042 35 282 1.0 6.0 0.01 0.33 0.04 58 1009.7
20210415070022 35 282 1.0 6.0 0.01 0.33 0.04 58 1009.7
20210415065931 35 281 1.0 7.0 0.01 0.33 0.04 58 1009.7
20210415065848 35 280 1.0 7.0 0.01 0.33 0.04 58 1009.7
20210415065841 35 279 1.0 7.0 0.01 0.33 0.04 58 1009.8
20210415065820 35 279 1.0 7.0 0.01 0.33 0.04 58 1009.7
20210415065706 35 279 1.0 7.0 0.01 0.33 0.04 58 1009.7
20210415065516 35 278 1.0 7.0 0.01 0.33 0.04 58 1009.8
20210415065240 35 279 1.0 7.0 0.01 0.33 0.04 58 1009.8
20210415064958 35 280 1.0 7.0 0.01 0.33 0.04 58 1009.9
20210415064836 35 280 1.0 7.0 0.01 0.33 0.04 58 1009.9
20210415064655 35 280 2.0 7.0 0.01 0.33 0.04 58 1009.9
20210415064556 35 279 2.0 6.0 0.01 0.33 0.04 58 1009.9
20210415064455 35 280 2.0 6.0 0.01 0.33 0.04 58 1009.9
20210415064354 35 279 2.0 6.0 0.01 0.33 0.04 58 1009.9
20210415064255 35 279 2.0 6.0 0.01 0.33 0.04 58 1009.9
20210415064157 35 279 2.0 6.0 0.01 0.33 0.04 58 1009.9
20210415064055 35 278 2.0 6.0 0.01 0.33 0.04 58 1009.9
20210415063957 35 277 2.0 6.0 0.01 0.33 0.04 58 1009.9
20210415063856 35 277 2.0 6.0 0.01 0.33 0.04 58 1009.9
20210415063755 35 276 2.0 6.0 0.01 0.33 0.04 58 1009.9
20210415063659 35 275 2.0 6.0 0.01 0.33 0.04 58 1009.9
20210415063555 35 275 2.0 4.0 0.01 0.33 0.04 58 1009.9
20210415063456 35 275 2.0 6.0 0.01 0.33 0.04 58 1009.9
20210415063355 35 277 2.0 6.0 0.01 0.33 0.04 58 1010.0
20210415063256 35 278 2.0 6.0 0.01 0.33 0.04 58 1009.9
20210415063222 35 278 2.0 6.0 0.01 0.33 0.04 58 1010.0
20210415063142 35 279 3.0 7.0 0.01 0.33 0.04 58 1010.0
20210415063115 35 278 3.0 7.0 0.01 0.33 0.04 58 1010.0
20210415063105 35 279 3.0 7.0 0.01 0.33 0.04 58 1010.0
20210415063056 35 280 3.0 7.0 0.01 0.33 0.04 58 1010.0
20210415063042 35 281 3.0 7.0 0.01 0.33 0.04 58 1010.0
20210415063023 35 281 3.0 7.0 0.01 0.33 0.04 58 1010.0
20210415062921 35 282 3.0 7.0 0.01 0.33 0.04 58 1010.0
20210415062913 35 280 3.0 7.0 0.01 0.33 0.04 58 1010.0
20210415062903 35 280 3.0 7.0 0.01 0.33 0.04 58 1010.0
20210415062818 35 280 3.0 7.0 0.01 0.33 0.04 58 1010.0
20210415062535 35 280 3.0 8.0 0.01 0.33 0.04 58 1010.0
20210415062226 35 281 3.0 8.0 0.01 0.33 0.04 58 1010.0
20210415061958 35 281 2.0 8.0 0.01 0.33 0.04 58 1010.0
20210415061817 35 281 2.0 8.0 0.01 0.33 0.04 58 1010.0
20210415061702 35 280 2.0 8.0 0.01 0.33 0.04 58 1010.0
20210415061622 35 280 2.0 8.0 0.01 0.33 0.04 58 1010.0
20210415061457 35 280 2.0 8.0 0.01 0.33 0.04 58 1010.0
20210415061359 35 281 1.0 8.0 0.01 0.33 0.04 58 1010.0
20210415061310 35 282 1.0 8.0 0.01 0.33 0.04 58 1010.0
20210415061156 35 282 1.0 8.0 0.01 0.33 0.04 58 1010.0
20210415061058 35 280 1.0 7.0 0.01 0.33 0.04 58 1010.0
20210415060955 35 280 1.0 7.0 0.01 0.33 0.04 58 1010.1
20210415060854 35 279 1.0 7.0 0.01 0.33 0.04 58 1010.0
20210415060800 35 279 1.0 7.0 0.01 0.33 0.04 58 1010.1
20210415060656 36 278 1.0 6.0 0.00 0.32 0.03 58 1010.0
20210415060555 35 276 1.0 6.0 0.00 0.32 0.03 58 1010.1
20210415060455 36 276 1.0 6.0 0.00 0.32 0.03 58 1010.1
20210415060356 36 276 1.0 6.0 0.00 0.32 0.03 58 1010.1
20210415060256 36 275 1.0 6.0 0.00 0.32 0.03 58 1010.2
20210415060158 36 276 0.0 5.0 0.00 0.32 0.03 58 1010.2
20210415060057 36 272 0.0 3.0 0.00 0.32 0.03 58 1010.2
20210415060010 36 272 0.0 3.0 0.00 0.32 0.03 58 1010.2
20210415055929 36 272 0.0 3.0 0.00 0.32 0.03 58 1010.2
20210415055913 36 272 0.0 2.0 0.00 0.32 0.03 58 1010.2
20210415055856 36 272 0.0 2.0 0.00 0.32 0.03 58 1010.2
20210415055835 36 274 0.0 1.0 0.00 0.32 0.03 58 1010.2
20210415055816 36 274 0.0 1.0 0.00 0.32 0.03 58 1010.3
20210415055747 36 274 0.0 1.0 0.00 0.32 0.03 58 1010.2
20210415055710 36 274 0.0 1.0 0.00 0.32 0.03 58 1010.3
20210415055539 36 274 0.0 1.0 0.00 0.32 0.03 58 1010.3
20210415055309 36 274 0.0 2.0 0.00 0.32 0.03 58 1010.3
20210415055053 36 273 0.0 3.0 0.01 0.32 0.03 58 1010.3
20210415054922 36 273 0.0 3.0 0.01 0.32 0.03 58 1010.3
20210415054821 36 273 0.0 3.0 0.01 0.32 0.03 58 1010.3
20210415054657 36 273 0.0 3.0 0.01 0.32 0.03 58 1010.3
20210415054557 36 273 0.0 3.0 0.01 0.32 0.03 58 1010.3
20210415054456 36 273 0.0 3.0 0.01 0.32 0.03 58 1010.3
20210415054355 36 273 0.0 3.0 0.01 0.32 0.03 58 1010.3
20210415054255 36 273 1.0 6.0 0.01 0.32 0.03 58 1010.3
20210415054154 36 273 1.0 6.0 0.01 0.32 0.03 58 1010.3
20210415054100 36 273 1.0 6.0 0.01 0.32 0.03 58 1010.3
20210415053956 36 274 1.0 6.0 0.01 0.32 0.03 58 1010.3
20210415053858 36 274 1.0 6.0 0.01 0.32 0.03 58 1010.3
20210415053758 36 274 1.0 6.0 0.01 0.32 0.03 58 1010.4
20210415053656 36 274 1.0 6.0 0.01 0.32 0.03 58 1010.4
20210415053615 36 274 1.0 6.0 0.01 0.32 0.03 58 1010.4
20210415053455 36 274 1.0 6.0 0.01 0.32 0.03 58 1010.4
20210415053356 36 273 2.0 6.0 0.01 0.32 0.03 58 1010.4
20210415053256 36 273 1.0 6.0 0.01 0.32 0.03 58 1010.4
20210415053230 36 275 2.0 6.0 0.01 0.32 0.03 58 1010.4
20210415053150 36 276 2.0 6.0 0.01 0.32 0.03 58 1010.4
20210415053001 36 276 2.0 6.0 0.01 0.32 0.03 58 1010.4
20210415052851 36 277 2.0 8.0 0.01 0.32 0.03 58 1010.4
20210415052837 36 279 3.0 8.0 0.01 0.32 0.03 58 1010.5
20210415052829 36 281 2.0 8.0 0.01 0.32 0.03 58 1010.5
20210415052823 36 281 3.0 8.0 0.01 0.32 0.03 58 1010.5
20210415052718 36 280 3.0 8.0 0.01 0.32 0.03 58 1010.5
20210415052620 36 280 3.0 8.0 0.02 0.32 0.03 58 1010.5
20210415052239 36 279 4.0 9.0 0.02 0.32 0.03 58 1010.5
20210415052122 36 279 4.0 9.0 0.02 0.32 0.03 58 1010.6
20210415051950 36 278 5.0 9.0 0.02 0.32 0.03 58 1010.6
20210415051732 36 279 5.0 9.0 0.02 0.32 0.03 58 1010.6
20210415051556 36 278 5.0 9.0 0.02 0.32 0.03 58 1010.6
20210415051459 36 278 5.0 9.0 0.02 0.32 0.03 58 1010.6
20210415051358 36 276 5.0 9.0 0.02 0.32 0.03 58 1010.6
20210415051259 36 275 6.0 9.0 0.02 0.32 0.03 58 1010.6
20210415051156 36 275 6.0 10.0 0.02 0.32 0.03 58 1010.6
20210415051055 36 276 6.0 10.0 0.02 0.32 0.03 58 1010.7
20210415050957 36 276 6.0 10.0 0.02 0.32 0.03 58 1010.6
20210415050904 36 276 6.0 10.0 0.02 0.32 0.03 58 1010.6
20210415050801 36 276 6.0 10.0 0.02 0.32 0.03 58 1010.6
20210415050659 36 275 6.0 10.0 0.02 0.32 0.03 58 1010.7
20210415050625 36 276 6.0 10.0 0.02 0.32 0.03 58 1010.6
20210415050456 36 276 7.0 10.0 0.02 0.32 0.03 58 1010.6
20210415050356 36 277 7.0 11.0 0.02 0.32 0.03 58 1010.7
20210415050255 36 278 6.0 11.0 0.02 0.32 0.03 58 1010.7
20210415050156 36 279 6.0 11.0 0.03 0.32 0.03 58 1010.7
20210415050058 36 280 6.0 11.0 0.03 0.32 0.03 58 1010.7
20210415050021 36 281 5.0 11.0 0.03 0.32 0.03 58 1010.7
20210415045933 36 281 5.0 11.0 0.03 0.32 0.03 58 1010.7
20210415045917 36 281 5.0 11.0 0.03 0.32 0.03 58 1010.7
20210415045901 36 281 5.0 11.0 0.03 0.32 0.03 58 1010.7
20210415045849 36 281 5.0 11.0 0.03 0.32 0.03 58 1010.7
20210415045822 36 282 5.0 11.0 0.03 0.32 0.03 58 1010.7
20210415045756 36 282 5.0 10.0 0.03 0.32 0.03 58 1010.8
20210415045736 36 281 5.0 10.0 0.03 0.32 0.03 58 1010.8
20210415045634 36 279 5.0 10.0 0.03 0.32 0.03 58 1010.8
20210415045420 36 278 5.0 10.0 0.03 0.32 0.03 58 1010.8
20210415045057 36 277 6.0 11.0 0.02 0.31 0.02 58 1010.8
20210415044946 36 277 6.0 11.0 0.02 0.31 0.02 58 1010.8
20210415044834 36 276 6.0 11.0 0.02 0.31 0.02 59 1010.9
20210415044654 36 276 6.0 11.0 0.02 0.31 0.02 59 1010.8
20210415044556 36 275 6.0 11.0 0.02 0.31 0.02 59 1010.9
20210415044522 36 275 6.0 11.0 0.02 0.31 0.02 59 1010.9
20210415044354 36 272 6.0 11.0 0.02 0.31 0.02 59 1010.8
20210415044258 36 271 6.0 11.0 0.02 0.31 0.02 59 1010.9
20210415044155 36 270 6.0 11.0 0.02 0.31 0.02 59 1010.9
20210415044055 36 270 6.0 11.0 0.02 0.31 0.02 59 1010.9
20210415043955 36 270 6.0 10.0 0.02 0.31 0.02 59 1010.9
20210415043854 36 269 6.0 10.0 0.02 0.31 0.02 59 1011.0
20210415043756 36 268 6.0 10.0 0.02 0.31 0.02 59 1011.0
20210415043654 36 267 6.0 10.0 0.03 0.31 0.02 59 1011.0
20210415043557 36 265 6.0 10.0 0.03 0.31 0.02 59 1011.0
20210415043456 36 263 5.0 9.0 0.03 0.31 0.02 59 1011.0
20210415043412 36 264 5.0 8.0 0.03 0.31 0.02 59 1011.0
20210415043255 36 263 5.0 8.0 0.03 0.31 0.02 59 1011.0
20210415043159 36 262 5.0 8.0 0.03 0.31 0.02 59 1011.1
20210415043057 36 259 5.0 8.0 0.03 0.31 0.02 59 1011.1
20210415042958 36 259 5.0 8.0 0.03 0.31 0.02 59 1011.1
20210415042936 35 253 4.0 7.0 0.03 0.31 0.02 60 1011.1
20210415042918 35 252 4.0 7.0 0.03 0.31 0.02 60 1011.1
20210415042902 35 252 4.0 7.0 0.04 0.31 0.02 60 1011.1
20210415042839 35 252 4.0 7.0 0.03 0.30 0.01 60 1011.1
20210415042718 35 253 4.0 7.0 0.03 0.30 0.01 60 1011.1
20210415042532 35 253 4.0 6.0 0.03 0.30 0.01 60 1011.1
20210415042220 35 253 4.0 6.0 0.03 0.30 0.01 60 1011.2
20210415041939 35 253 4.0 7.0 0.03 0.30 0.01 60 1011.2
20210415041654 35 254 4.0 7.0 0.03 0.30 0.01 60 1011.2
20210415041623 35 254 4.0 7.0 0.03 0.30 0.01 60 1011.3
20210415041455 35 255 4.0 7.0 0.03 0.30 0.01 60 1011.3
20210415041356 35 256 4.0 7.0 0.03 0.30 0.01 60 1011.3
20210415041256 35 256 4.0 7.0 0.03 0.30 0.01 60 1011.3
20210415041155 35 257 4.0 7.0 0.03 0.30 0.01 61 1011.3
20210415041058 35 258 4.0 7.0 0.03 0.30 0.01 61 1011.3
20210415040957 35 259 4.0 7.0 0.03 0.30 0.01 61 1011.3
20210415040857 35 261 4.0 7.0 0.03 0.30 0.01 61 1011.3
20210415040756 35 263 4.0 7.0 0.03 0.30 0.01 61 1011.3
20210415040654 35 264 4.0 7.0 0.03 0.30 0.01 61 1011.3
20210415040554 35 265 4.0 7.0 0.03 0.30 0.01 61 1011.4
20210415040455 35 265 4.0 7.0 0.03 0.30 0.01 61 1011.4
20210415040354 35 265 4.0 7.0 0.03 0.30 0.01 61 1011.4
20210415040255 35 266 4.0 7.0 0.02 0.29 0.00 61 1011.4
20210415040156 35 268 4.0 7.0 0.02 0.29 0.00 61 1011.4
20210415040105 35 269 4.0 7.0 0.02 0.29 0.00 61 1011.5
20210415040034 35 270 4.0 7.0 0.02 0.29 0.00 61 1011.4
20210415035940 35 270 4.0 7.0 0.02 0.29 0.29 61 1011.5
20210415035931 35 269 4.0 7.0 0.02 0.29 0.29 61 1011.5
20210415035921 35 270 5.0 7.0 0.02 0.29 0.29 61 1011.5
20210415035907 35 270 5.0 8.0 0.02 0.29 0.29 61 1011.5
20210415035835 35 270 5.0 8.0 0.02 0.29 0.29 61 1011.5
20210415035826 35 270 5.0 8.0 0.02 0.29 0.29 62 1011.6
20210415035818 35 270 5.0 8.0 0.02 0.29 0.29 62 1011.6
20210415035735 35 270 5.0 8.0 0.02 0.29 0.29 62 1011.6
20210415035458 35 269 5.0 8.0 0.02 0.29 0.29 62 1011.6
20210415035233 35 268 5.0 8.0 0.02 0.29 0.29 62 1011.6
20210415035117 35 269 5.0 8.0 0.02 0.29 0.29 62 1011.6
20210415034851 35 269 5.0 8.0 0.02 0.29 0.29 62 1011.6
20210415034658 35 268 5.0 8.0 0.02 0.29 0.29 62 1011.6
20210415034557 35 267 5.0 8.0 0.02 0.29 0.29 62 1011.6
20210415034455 35 268 4.0 7.0 0.02 0.29 0.29 62 1011.6
20210415034355 35 269 5.0 8.0 0.02 0.29 0.29 62 1011.6
20210415034256 35 270 5.0 8.0 0.02 0.29 0.29 62 1011.6
20210415034154 35 269 5.0 8.0 0.02 0.29 0.29 63 1011.6
20210415034055 35 267 5.0 8.0 0.02 0.29 0.29 63 1011.6
20210415033958 35 268 5.0 8.0 0.02 0.29 0.29 62 1011.7
20210415033858 35 266 5.0 8.0 0.02 0.29 0.29 63 1011.7
20210415033801 35 267 5.0 8.0 0.02 0.29 0.29 63 1011.7
20210415033654 35 267 5.0 8.0 0.01 0.28 0.28 63 1011.7
20210415033555 35 267 5.0 8.0 0.01 0.28 0.28 63 1011.7
20210415033500 35 267 5.0 8.0 0.01 0.28 0.28 63 1011.7
20210415033353 35 267 5.0 8.0 0.01 0.28 0.28 63 1011.8
20210415033255 35 268 4.0 8.0 0.01 0.28 0.28 63 1011.7
20210415033200 35 270 4.0 8.0 0.01 0.28 0.28 63 1011.8
20210415033057 35 272 5.0 8.0 0.01 0.28 0.28 63 1011.8
20210415033023 35 272 5.0 8.0 0.01 0.28 0.28 63 1011.8
20210415032856 35 274 5.0 8.0 0.01 0.28 0.28 63 1011.8
20210415032831 35 273 5.0 8.0 0.01 0.28 0.28 63 1011.8
20210415032823 35 273 6.0 8.0 0.01 0.28 0.28 63 1011.8
20210415032815 35 272 6.0 8.0 0.01 0.28 0.28 63 1011.8
20210415032750 36 273 5.0 8.0 0.01 0.28 0.28 63 1011.9
20210415032731 36 273 5.0 8.0 0.00 0.27 0.27 63 1011.9
20210415032641 36 272 5.0 8.0 0.00 0.27 0.27 63 1011.9
20210415032520 36 271 5.0 8.0 0.00 0.27 0.27 63 1011.9
20210415032337 36 271 5.0 8.0 0.00 0.27 0.27 63 1011.9
20210415032121 36 270 4.0 8.0 0.00 0.27 0.27 63 1011.9
20210415031928 36 270 4.0 7.0 0.00 0.27 0.27 63 1011.9
20210415031800 36 270 4.0 7.0 0.00 0.27 0.27 64 1012.0
20210415031655 36 271 4.0 7.0 0.00 0.27 0.27 63 1011.9
20210415031554 36 271 4.0 7.0 0.00 0.27 0.27 63 1012.0
20210415031458 36 271 4.0 7.0 0.00 0.27 0.27 63 1012.0
20210415031407 36 271 4.0 7.0 0.00 0.27 0.27 63 1012.0
20210415031257 36 270 4.0 7.0 0.00 0.27 0.27 63 1012.0
20210415031155 36 270 3.0 7.0 0.00 0.27 0.27 63 1012.0
20210415031054 36 269 3.0 6.0 0.00 0.27 0.27 64 1012.1
20210415031010 36 269 3.0 6.0 0.00 0.27 0.27 64 1012.1
20210415030858 36 269 3.0 6.0 0.00 0.27 0.27 64 1012.1
20210415030755 36 268 3.0 6.0 0.00 0.27 0.27 64 1012.1
20210415030655 36 267 3.0 6.0 0.00 0.27 0.27 64 1012.1
20210415030555 36 266 3.0 6.0 0.00 0.27 0.27 64 1012.1
20210415030459 36 265 3.0 7.0 0.00 0.27 0.27 64 1012.1
20210415030357 36 265 3.0 7.0 0.00 0.27 0.27 64 1012.1
20210415030254 36 265 3.0 7.0 0.00 0.27 0.27 64 1012.2
20210415030154 36 265 4.0 7.0 0.00 0.27 0.27 64 1012.1
20210415030110 36 267 4.0 8.0 0.00 0.27 0.27 64 1012.2
20210415030015 36 267 4.0 8.0 0.00 0.27 0.27 64 1012.2
20210415025906 35 270 4.0 8.0 0.00 0.27 0.27 64 1012.2
20210415025848 36 269 4.0 8.0 0.00 0.27 0.27 65 1012.2
20210415025836 36 269 4.0 8.0 0.00 0.27 0.27 65 1012.3
20210415025804 36 270 4.0 8.0 0.00 0.27 0.27 65 1012.3
20210415025701 36 270 4.0 7.0 0.00 0.27 0.27 65 1012.2
20210415025543 36 269 4.0 7.0 0.00 0.27 0.27 65 1012.3
20210415025357 36 269 4.0 7.0 0.00 0.27 0.27 65 1012.3
20210415024936 36 269 4.0 7.0 0.00 0.27 0.27 65 1012.3
20210415024656 36 269 4.0 7.0 0.00 0.27 0.27 65 1012.3
20210415024620 35 268 4.0 7.0 0.00 0.27 0.27 65 1012.3
20210415024526 35 267 4.0 7.0 0.00 0.27 0.27 65 1012.3
20210415024354 35 267 5.0 7.0 0.00 0.27 0.27 65 1012.3
20210415024254 35 267 5.0 7.0 0.00 0.27 0.27 65 1012.3
20210415024157 35 266 5.0 7.0 0.00 0.27 0.27 66 1012.3
20210415024103 35 265 5.0 7.0 0.00 0.27 0.27 66 1012.3
20210415023958 35 266 5.0 7.0 0.00 0.27 0.27 66 1012.3
20210415023901 35 266 5.0 7.0 0.00 0.27 0.27 66 1012.3
20210415023758 35 265 5.0 8.0 0.00 0.27 0.27 66 1012.3
20210415023657 35 264 5.0 8.0 0.00 0.27 0.27 66 1012.3
20210415023555 35 264 5.0 8.0 0.00 0.27 0.27 66 1012.3
20210415023520 35 267 5.0 8.0 0.00 0.27 0.27 66 1012.3
20210415023357 35 268 5.0 8.0 0.00 0.27 0.27 66 1012.3
20210415023254 35 269 5.0 8.0 0.00 0.27 0.27 66 1012.3
20210415023154 35 270 5.0 8.0 0.00 0.27 0.27 66 1012.3
20210415023054 35 270 5.0 8.0 0.00 0.27 0.27 66 1012.3
20210415022959 35 270 5.0 8.0 0.00 0.27 0.27 66 1012.3
20210415022854 35 271 5.0 8.0 0.00 0.27 0.27 66 1012.3
20210415022822 35 272 5.0 8.0 0.00 0.27 0.27 66 1012.4
20210415022806 35 271 5.0 9.0 0.00 0.27 0.27 66 1012.4
20210415022743 35 271 5.0 9.0 0.00 0.27 0.27 66 1012.3
20210415022726 35 271 5.0 9.0 0.00 0.27 0.27 66 1012.4
20210415022643 35 270 5.0 9.0 0.00 0.27 0.27 66 1012.4
20210415022528 35 270 5.0 9.0 0.00 0.27 0.27 66 1012.4
20210415022435 35 270 5.0 9.0 0.00 0.27 0.27 65 1012.4
20210415022337 35 270 5.0 9.0 0.00 0.27 0.27 65 1012.5
20210415022127 35 270 5.0 9.0 0.00 0.27 0.27 65 1012.4
20210415022048 35 270 5.0 9.0 0.00 0.27 0.27 65 1012.4
20210415021853 35 271 5.0 9.0 0.00 0.27 0.27 65 1012.5
20210415021701 35 274 5.0 9.0 0.00 0.27 0.27 65 1012.4
20210415021615 35 275 5.0 9.0 0.00 0.27 0.27 64 1012.3
20210415021512 35 275 5.0 9.0 0.00 0.27 0.27 64 1012.4
20210415021354 35 275 5.0 9.0 0.00 0.27 0.27 64 1012.4
20210415021254 35 276 5.0 9.0 0.00 0.27 0.27 64 1012.5
20210415021221 35 277 5.0 9.0 0.00 0.27 0.27 64 1012.5
20210415021134 35 276 5.0 9.0 0.00 0.27 0.27 64 1012.4
20210415020957 35 277 5.0 9.0 0.00 0.27 0.27 64 1012.4
20210415020859 35 278 4.0 9.0 0.00 0.27 0.27 64 1012.4
20210415020757 35 278 4.0 9.0 0.00 0.27 0.27 63 1012.4
20210415020656 35 279 4.0 8.0 0.00 0.27 0.27 63 1012.5
20210415020632 35 277 4.0 8.0 0.00 0.27 0.27 63 1012.4
20210415020455 35 279 4.0 7.0 0.00 0.27 0.27 63 1012.5
20210415020356 36 277 3.0 7.0 0.00 0.27 0.27 63 1012.5
20210415020342 36 277 3.0 7.0 0.00 0.27 0.27 63 1012.5
20210415020309 36 275 3.0 7.0 0.00 0.27 0.27 62 1012.5
20210415020243 36 274 3.0 7.0 0.00 0.27 0.27 62 1012.5
20210415020230 36 274 3.0 6.0 0.00 0.27 0.27 62 1012.5
20210415020145 36 275 3.0 6.0 0.00 0.27 0.27 62 1012.6
20210415020134 36 276 3.0 8.0 0.00 0.27 0.27 62 1012.6
20210415020118 36 276 3.0 8.0 0.00 0.27 0.27 62 1012.6
20210415020025 36 275 3.0 8.0 0.00 0.27 0.27 63 1012.6
20210415015922 36 274 3.0 8.0 0.00 0.27 0.27 63 1012.6
20210415015643 36 274 3.0 8.0 0.00 0.27 0.27 63 1012.6
20210415015353 36 273 3.0 8.0 0.00 0.27 0.27 63 1012.6
20210415015058 36 273 3.0 8.0 0.00 0.27 0.27 63 1012.6
20210415014908 36 271 3.0 8.0 0.00 0.27 0.27 63 1012.6
20210415014644 36 270 3.0 8.0 0.00 0.27 0.27 63 1012.6
20210415014520 36 270 3.0 8.0 0.00 0.27 0.27 63 1012.6
20210415014356 36 269 3.0 6.0 0.00 0.27 0.27 63 1012.6
20210415014255 36 269 3.0 6.0 0.00 0.27 0.27 63 1012.5
20210415014203 35 270 3.0 7.0 0.00 0.27 0.27 63 1012.6
20210415014106 35 270 3.0 7.0 0.00 0.27 0.27 63 1012.6
20210415013956 35 271 3.0 7.0 0.00 0.27 0.27 63 1012.6
20210415013853 35 271 3.0 7.0 0.00 0.27 0.27 63 1012.6
20210415013754 35 271 3.0 7.0 0.00 0.27 0.27 63 1012.6
20210415013703 35 270 3.0 7.0 0.00 0.27 0.27 63 1012.6
20210415013634 35 270 3.0 7.0 0.00 0.27 0.27 63 1012.6
20210415013525 35 270 3.0 7.0 0.00 0.27 0.27 63 1012.6
20210415013316 35 270 3.0 7.0 0.00 0.27 0.27 64 1012.5
20210415013259 35 271 3.0 7.0 0.00 0.27 0.27 64 1012.5
20210415013236 35 271 3.0 7.0 0.00 0.27 0.27 64 1012.5
20210415013146 35 272 3.0 7.0 0.00 0.27 0.27 64 1012.5
20210415013132 35 274 3.0 7.0 0.00 0.27 0.27 64 1012.6
20210415013038 35 275 3.0 7.0 0.00 0.27 0.27 64 1012.6
20210415012931 35 276 3.0 7.0 0.00 0.27 0.27 64 1012.6
20210415012319 35 276 3.0 8.0 0.00 0.27 0.27 64 1012.6
20210415011928 35 276 4.0 8.0 0.00 0.27 0.27 64 1012.5
20210415011631 35 276 4.0 8.0 0.00 0.27 0.27 64 1012.6
20210415011517 35 276 4.0 8.0 0.00 0.27 0.27 64 1012.6
20210415011355 35 276 4.0 8.0 0.00 0.27 0.27 64 1012.5
20210415011253 35 277 5.0 8.0 0.00 0.27 0.27 64 1012.5
20210415011201 35 277 5.0 8.0 0.00 0.27 0.27 64 1012.5
20210415011103 35 277 5.0 8.0 0.00 0.27 0.27 64 1012.5
20210415010956 35 276 5.0 8.0 0.00 0.27 0.27 64 1012.5
20210415010933 35 275 5.0 8.0 0.00 0.27 0.27 64 1012.5
20210415010852 35 276 5.0 8.0 0.00 0.27 0.27 64 1012.5
20210415010734 35 276 5.0 8.0 0.00 0.27 0.27 64 1012.5
20210415010658 35 274 5.0 8.0 0.00 0.27 0.27 64 1012.5
20210415010501 35 273 5.0 8.0 0.00 0.27 0.27 64 1012.5
20210415010354 35 270 5.0 8.0 0.00 0.27 0.27 64 1012.5
20210415010316 35 269 5.0 8.0 0.00 0.27 0.27 64 1012.5
20210415010156 35 266 5.0 8.0 0.00 0.27 0.27 64 1012.5
20210415010132 35 266 5.0 8.0 0.00 0.27 0.27 64 1012.6
20210415010020 35 267 5.0 8.0 0.00 0.27 0.27 64 1012.6
20210415005850 35 270 5.0 7.0 0.00 0.27 0.27 65 1012.6
20210415005749 35 270 5.0 7.0 0.00 0.27 0.27 65 1012.7
20210415005442 35 270 5.0 7.0 0.00 0.27 0.27 65 1012.7
20210415005238 35 269 5.0 7.0 0.00 0.27 0.27 65 1012.7
20210415004929 35 269 5.0 8.0 0.00 0.27 0.27 65 1012.7
20210415004706 35 268 5.0 9.0 0.00 0.27 0.27 65 1012.7
20210415004628 35 266 5.0 9.0 0.00 0.27 0.27 65 1012.7
20210415004516 35 266 5.0 9.0 0.00 0.27 0.27 65 1012.7
20210415004407 35 266 6.0 9.0 0.00 0.27 0.27 65 1012.7
20210415004315 35 266 6.0 9.0 0.00 0.27 0.27 65 1012.7
20210415004157 35 266 6.0 9.0 0.00 0.27 0.27 66 1012.7
20210415004100 35 267 6.0 9.0 0.00 0.27 0.27 66 1012.7
20210415003957 35 267 7.0 10.0 0.00 0.27 0.27 66 1012.7
20210415003856 35 267 7.0 10.0 0.00 0.27 0.27 66 1012.7
20210415003754 35 267 7.0 11.0 0.00 0.27 0.27 66 1012.7
20210415003654 35 268 7.0 11.0 0.00 0.27 0.27 67 1012.7
20210415003554 35 268 7.0 11.0 0.00 0.27 0.27 67 1012.6
20210415003455 35 269 7.0 11.0 0.00 0.27 0.27 67 1012.7
20210415003356 35 270 7.0 11.0 0.00 0.27 0.27 67 1012.6
20210415003259 35 270 8.0 11.0 0.00 0.27 0.27 67 1012.7
20210415003243 35 269 8.0 12.0 0.00 0.27 0.27 69 1012.6
20210415003155 35 269 8.0 12.0 0.00 0.27 0.27 69 1012.7
20210415003117 35 268 8.0 12.0 0.00 0.27 0.27 69 1012.7
20210415003101 35 267 8.0 12.0 0.00 0.27 0.27 69 1012.7
20210415003046 35 267 8.0 12.0 0.00 0.27 0.27 69 1012.6
20210415002954 35 266 8.0 12.0 0.00 0.27 0.27 69 1012.6
20210415002931 36 267 8.0 12.0 0.00 0.27 0.27 69 1012.6
20210415002902 36 267 8.0 12.0 0.00 0.27 0.27 69 1012.6
20210415002616 36 269 8.0 11.0 0.00 0.27 0.27 69 1012.6
20210415002103 36 270 8.0 11.0 0.00 0.27 0.27 69 1012.6
20210415001708 36 270 8.0 11.0 0.00 0.27 0.27 70 1012.6
20210415001624 36 271 8.0 11.0 0.00 0.27 0.27 70 1012.6
20210415001535 36 272 8.0 11.0 0.00 0.27 0.27 70 1012.6
20210415001433 36 273 8.0 11.0 0.00 0.27 0.27 70 1012.6
20210415001252 36 272 8.0 13.0 0.00 0.27 0.27 71 1012.5
20210415001158 36 273 8.0 13.0 0.00 0.27 0.27 71 1012.5
20210415001147 36 273 8.0 13.0 0.00 0.27 0.27 71 1012.6
20210415001107 36 274 8.0 13.0 0.00 0.27 0.27 71 1012.6
20210415001049 36 275 8.0 13.0 0.00 0.27 0.27 71 1012.6
20210415001028 36 272 9.0 13.0 0.00 0.27 0.27 71 1012.6
20210415000857 36 270 9.0 13.0 0.00 0.27 0.27 71 1012.5
20210415000816 36 270 9.0 13.0 0.00 0.27 0.27 71 1012.5
20210415000740 36 269 9.0 13.0 0.00 0.27 0.27 71 1012.5
20210415000722 36 269 9.0 13.0 0.00 0.27 0.27 71 1012.5
20210415000644 36 268 9.0 13.0 0.00 0.27 0.27 71 1012.5
20210415000544 36 266 8.0 13.0 0.00 0.27 0.27 71 1012.5
20210415000408 37 264 8.0 13.0 0.00 0.27 0.27 71 1012.5
20210415000258 37 262 8.0 13.0 0.00 0.27 0.27 70 1012.5
20210415000159 37 260 8.0 13.0 0.00 0.27 0.27 70 1012.5
20210415000124 37 262 7.0 11.0 0.00 0.27 0.27 70 1012.5
20210415000058 37 262 7.0 11.0 0.00 0.27 0.27 70 1012.5
20210415000025 37 262 7.0 11.0 0.00 0.27 0.27 71 1012.5
20210414235955 37 262 7.0 10.0 0.00 0.27 0.27 71 1012.5
20210414235942 37 262 7.0 11.0 0.00 0.27 0.27 71 1012.5
20210414235905 37 264 7.0 11.0 0.00 0.27 0.27 71 1012.5
20210414235652 37 266 7.0 11.0 0.00 0.27 0.27 71 1012.5
20210414235446 37 266 7.0 11.0 0.00 0.27 0.27 71 1012.5
20210414235104 37 266 7.0 11.0 0.00 0.27 0.27 70 1012.5
20210414234706 37 267 7.0 11.0 0.00 0.27 0.27 70 1012.5
20210414234556 37 266 7.0 11.0 0.00 0.27 0.27 70 1012.5
20210414234520 37 265 7.0 11.0 0.00 0.27 0.27 70 1012.5
20210414234447 37 264 7.0 11.0 0.00 0.27 0.27 70 1012.6
20210414234426 37 262 7.0 11.0 0.00 0.27 0.27 70 1012.5
20210414234338 37 261 7.0 10.0 0.00 0.27 0.27 70 1012.5
20210414234300 37 259 7.0 9.0 0.00 0.27 0.27 70 1012.5
20210414234113 37 258 7.0 9.0 0.00 0.27 0.27 70 1012.5
20210414234023 37 258 7.0 9.0 0.00 0.27 0.27 70 1012.5
20210414233859 37 260 7.0 9.0 0.00 0.27 0.27 70 1012.5
20210414233711 37 260 7.0 9.0 0.00 0.27 0.27 70 1012.5
20210414233556 37 261 7.0 9.0 0.00 0.27 0.27 70 1012.6
20210414233457 37 262 7.0 9.0 0.00 0.27 0.27 70 1012.6
20210414233354 37 262 6.0 9.0 0.00 0.27 0.27 70 1012.6
20210414233340 37 262 6.0 9.0 0.00 0.27 0.27 70 1012.6
20210414233250 37 261 6.0 9.0 0.00 0.27 0.27 70 1012.6
20210414233217 37 259 6.0 9.0 0.00 0.27 0.27 70 1012.6
20210414233130 37 259 6.0 9.0 0.00 0.27 0.27 70 1012.7
20210414233053 37 258 6.0 9.0 0.00 0.27 0.27 70 1012.7
20210414233000 37 257 6.0 9.0 0.00 0.27 0.27 70 1012.7
20210414232932 37 257 5.0 9.0 0.00 0.27 0.27 70 1012.7
20210414232900 37 254 6.0 9.0 0.00 0.27 0.27 70 1012.7
20210414232832 37 254 6.0 9.0 0.00 0.27 0.27 70 1012.7
20210414232818 37 255 6.0 9.0 0.00 0.27 0.27 70 1012.7
20210414232734 37 256 6.0 9.0 0.00 0.27 0.27 70 1012.7
20210414232626 37 256 6.0 9.0 0.00 0.27 0.27 70 1012.6
20210414232357 37 258 6.0 9.0 0.00 0.27 0.27 70 1012.6
20210414232143 37 258 6.0 9.0 0.00 0.27 0.27 70 1012.6
20210414232022 37 257 6.0 9.0 0.00 0.27 0.27 70 1012.6
20210414231833 37 257 6.0 9.0 0.00 0.27 0.27 71 1012.6
20210414231658 37 256 7.0 9.0 0.00 0.27 0.27 71 1012.6
20210414231553 37 256 7.0 9.0 0.00 0.27 0.27 71 1012.6
20210414231459 37 255 7.0 9.0 0.00 0.27 0.27 71 1012.6
20210414231400 37 254 7.0 9.0 0.00 0.27 0.27 71 1012.6
20210414231302 37 253 7.0 9.0 0.00 0.27 0.27 71 1012.6
20210414231206 37 253 7.0 9.0 0.00 0.27 0.27 71 1012.6
20210414231100 37 252 7.0 10.0 0.00 0.27 0.27 71 1012.6
20210414230955 37 251 7.0 10.0 0.00 0.27 0.27 71 1012.6
20210414230902 37 252 7.0 10.0 0.00 0.27 0.27 71 1012.6
20210414230753 37 252 7.0 10.0 0.00 0.27 0.27 71 1012.6
20210414230657 37 253 7.0 10.0 0.00 0.27 0.27 71 1012.6
20210414230621 37 256 7.0 10.0 0.00 0.27 0.27 71 1012.6
20210414230458 37 256 7.0 10.0 0.00 0.27 0.27 72 1012.6
20210414230421 37 256 8.0 10.0 0.00 0.27 0.27 72 1012.6
20210414230257 37 256 8.0 10.0 0.00 0.27 0.27 72 1012.6
20210414230220 37 256 8.0 10.0 0.00 0.27 0.27 72 1012.6
20210414230132 37 257 8.0 10.0 0.00 0.27 0.27 72 1012.6
20210414230102 37 258 8.0 10.0 0.00 0.27 0.27 72 1012.7
20210414230024 37 259 8.0 10.0 0.00 0.27 0.27 72 1012.7
20210414225945 37 260 7.0 10.0 0.00 0.27 0.27 72 1012.6
20210414225925 37 260 7.0 10.0 0.00 0.27 0.27 72 1012.6
20210414225916 37 260 7.0 10.0 0.00 0.27 0.27 72 1012.6
20210414225858 37 262 7.0 10.0 0.00 0.27 0.27 72 1012.6
20210414225850 37 264 7.0 10.0 0.00 0.27 0.27 72 1012.6
20210414225839 37 266 6.0 10.0 0.00 0.27 0.27 72 1012.6
20210414225820 37 269 6.0 10.0 0.00 0.27 0.27 72 1012.6
20210414225612 37 270 6.0 9.0 0.00 0.27 0.27 72 1012.6
20210414225248 37 271 6.0 9.0 0.00 0.27 0.27 72 1012.6
20210414225034 37 271 6.0 9.0 0.00 0.27 0.27 72 1012.6
20210414224844 37 270 6.0 9.0 0.00 0.27 0.27 72 1012.6
20210414224659 37 268 6.0 9.0 0.00 0.27 0.27 72 1012.6
20210414224637 37 266 5.0 9.0 0.00 0.27 0.27 72 1012.6
20210414224454 37 263 5.0 9.0 0.00 0.27 0.27 72 1012.6
20210414224355 37 262 6.0 9.0 0.00 0.27 0.27 72 1012.6
20210414224300 37 261 5.0 9.0 0.00 0.27 0.27 72 1012.6
20210414224157 37 260 6.0 9.0 0.00 0.27 0.27 72 1012.6
20210414224103 37 259 6.0 9.0 0.00 0.27 0.27 72 1012.6
20210414224000 37 260 6.0 8.0 0.00 0.27 0.27 73 1012.6
20210414223856 37 261 6.0 8.0 0.00 0.27 0.27 73 1012.6
20210414223754 37 264 6.0 10.0 0.00 0.27 0.27 73 1012.6
20210414223654 37 265 6.0 10.0 0.00 0.27 0.27 73 1012.6
20210414223556 37 266 6.0 10.0 0.00 0.27 0.27 73 1012.6
20210414223456 37 267 7.0 10.0 0.00 0.27 0.27 73 1012.5
20210414223354 37 266 7.0 11.0 0.00 0.27 0.27 73 1012.5
20210414223254 37 265 7.0 11.0 0.00 0.27 0.27 73 1012.6
20210414223154 37 264 7.0 11.0 0.00 0.27 0.27 73 1012.6
20210414223053 37 263 8.0 11.0 0.00 0.27 0.27 73 1012.6
20210414222958 37 263 7.0 11.0 0.00 0.27 0.27 73 1012.6
20210414222925 37 262 7.0 11.0 0.00 0.27 0.27 73 1012.6
20210414222913 37 261 7.0 11.0 0.00 0.27 0.27 73 1012.5
20210414222904 37 261 7.0 11.0 0.00 0.27 0.27 73 1012.6
20210414222852 37 262 7.0 11.0 0.00 0.27 0.27 73 1012.5
20210414222832 38 263 7.0 11.0 0.00 0.27 0.27 74 1012.5
20210414222813 38 264 7.0 11.0 0.00 0.27 0.27 73 1012.5
20210414222659 38 266 7.0 11.0 0.00 0.27 0.27 73 1012.5
20210414222541 38 269 7.0 11.0 0.00 0.27 0.27 73 1012.6
20210414222357 38 270 7.0 11.0 0.00 0.27 0.27 73 1012.6
20210414222122 38 270 7.0 11.0 0.01 0.27 0.27 74 1012.6
20210414222035 38 270 8.0 11.0 0.01 0.27 0.27 74 1012.6
20210414221846 38 271 8.0 11.0 0.01 0.27 0.27 74 1012.6
20210414221654 38 270 8.0 11.0 0.01 0.27 0.27 73 1012.6
20210414221600 38 270 8.0 11.0 0.01 0.27 0.27 73 1012.6
20210414221518 38 270 8.0 12.0 0.01 0.27 0.27 73 1012.5
20210414221445 38 272 8.0 12.0 0.01 0.27 0.27 73 1012.6
20210414221326 38 272 8.0 12.0 0.01 0.27 0.27 73 1012.5
20210414221154 38 271 8.0 12.0 0.01 0.27 0.27 73 1012.6
20210414221053 38 271 8.0 12.0 0.01 0.27 0.27 73 1012.6
20210414220954 38 270 8.0 12.0 0.01 0.27 0.27 73 1012.5
20210414220929 38 268 8.0 12.0 0.01 0.27 0.27 73 1012.6
20210414220833 38 267 8.0 12.0 0.01 0.27 0.27 73 1012.5
20210414220655 38 267 8.0 12.0 0.01 0.27 0.27 72 1012.6
20210414220600 38 266 8.0 12.0 0.01 0.27 0.27 72 1012.5
20210414220457 38 263 8.0 12.0 0.01 0.27 0.27 72 1012.6
20210414220415 38 261 8.0 13.0 0.01 0.27 0.27 72 1012.5
20210414220305 38 261 9.0 15.0 0.01 0.27 0.27 71 1012.6
20210414220155 38 260 9.0 15.0 0.01 0.27 0.27 71 1012.6
20210414220101 38 259 10.0 15.0 0.01 0.27 0.27 71 1012.5
20210414220011 38 259 10.0 15.0 0.01 0.27 0.27 71 1012.6
20210414215912 38 261 10.0 15.0 0.01 0.27 0.27 71 1012.6
20210414215902 38 263 10.0 15.0 0.01 0.27 0.27 71 1012.5
20210414215856 38 265 10.0 15.0 0.01 0.27 0.27 71 1012.6
20210414215847 38 266 10.0 15.0 0.01 0.27 0.27 71 1012.6
20210414215758 38 266 10.0 15.0 0.01 0.27 0.27 70 1012.6
20210414215745 38 267 10.0 15.0 0.01 0.27 0.27 70 1012.6
20210414215537 38 266 10.0 15.0 0.01 0.27 0.27 70 1012.5
20210414215400 38 267 9.0 15.0 0.01 0.27 0.27 69 1012.6
20210414215236 38 267 9.0 15.0 0.01 0.27 0.27 69 1012.5
20210414215000 38 266 9.0 15.0 0.01 0.27 0.27 68 1012.5
20210414214918 38 263 9.0 15.0 0.01 0.27 0.27 68 1012.5
20210414214800 38 261 8.0 15.0 0.01 0.27 0.27 67 1012.5
20210414214656 38 260 7.0 13.0 0.01 0.27 0.27 67 1012.6
20210414214555 38 259 7.0 13.0 0.01 0.27 0.27 66 1012.5
20210414214459 38 260 7.0 13.0 0.01 0.27 0.27 66 1012.6
20210414214353 38 262 7.0 12.0 0.02 0.27 0.27 66 1012.6
20210414214254 38 262 7.0 12.0 0.02 0.27 0.27 66 1012.6
20210414214156 38 263 6.0 12.0 0.02 0.27 0.27 66 1012.6
20210414214100 38 263 6.0 10.0 0.02 0.27 0.27 66 1012.6
20210414213956 37 264 6.0 10.0 0.02 0.27 0.27 66 1012.6
20210414213857 37 265 6.0 10.0 0.02 0.27 0.27 66 1012.6
20210414213753 37 264 6.0 10.0 0.02 0.27 0.27 67 1012.6
20210414213657 37 263 7.0 10.0 0.02 0.27 0.27 67 1012.6
20210414213554 37 261 7.0 10.0 0.02 0.27 0.27 67 1012.6
20210414213454 37 260 7.0 10.0 0.02 0.27 0.27 67 1012.7
20210414213355 37 260 7.0 10.0 0.02 0.27 0.27 67 1012.7
20210414213305 37 260 7.0 10.0 0.02 0.27 0.27 68 1012.7
20210414213229 37 259 7.0 10.0 0.02 0.27 0.27 68 1012.7
20210414213122 37 260 7.0 10.0 0.02 0.27 0.27 68 1012.7
20210414213054 37 261 7.0 10.0 0.02 0.27 0.27 68 1012.8
20210414213041 37 262 7.0 10.0 0.02 0.27 0.27 69 1012.8
20210414213031 37 263 7.0 10.0 0.02 0.27 0.27 69 1012.8
20210414213013 37 264 7.0 10.0 0.02 0.27 0.27 69 1012.8
20210414212956 37 267 7.0 10.0 0.02 0.27 0.27 69 1012.7
20210414212943 37 266 7.0 10.0 0.02 0.27 0.27 69 1012.7
20210414212931 37 265 7.0 10.0 0.02 0.27 0.27 69 1012.8
20210414212924 37 264 7.0 10.0 0.02 0.27 0.27 69 1012.8
20210414212900 37 263 7.0 10.0 0.02 0.27 0.27 70 1012.8
20210414212802 37 261 7.0 10.0 0.02 0.27 0.27 69 1012.8
20210414212521 37 261 7.0 10.0 0.01 0.26 0.26 70 1012.8
20210414212153 37 261 7.0 10.0 0.01 0.26 0.26 69 1012.8
20210414212025 37 259 6.0 10.0 0.01 0.26 0.26 69 1012.8
20210414211657 37 256 6.0 10.0 0.01 0.26 0.26 69 1012.8
20210414211556 38 254 6.0 9.0 0.01 0.26 0.26 68 1012.8
20210414211458 37 255 6.0 9.0 0.01 0.26 0.26 69 1012.8
20210414211355 37 256 6.0 9.0 0.01 0.26 0.26 69 1012.8
20210414211255 37 257 5.0 9.0 0.01 0.26 0.26 68 1012.8
20210414211154 38 259 5.0 9.0 0.01 0.26 0.26 68 1012.8
20210414211055 38 261 6.0 10.0 0.01 0.26 0.26 68 1012.8
20210414210957 38 262 6.0 10.0 0.01 0.26 0.26 68 1012.8
20210414210853 38 264 6.0 10.0 0.01 0.26 0.26 68 1012.8
20210414210807 38 266 6.0 13.0 0.01 0.26 0.26 68 1012.8
20210414210703 38 268 7.0 13.0 0.01 0.26 0.26 67 1012.8
20210414210554 38 268 7.0 13.0 0.01 0.26 0.26 67 1012.8
20210414210507 38 268 7.0 13.0 0.01 0.26 0.26 68 1012.8
20210414210353 38 265 7.0 13.0 0.01 0.26 0.26 68 1012.9
20210414210254 37 263 8.0 13.0 0.01 0.26 0.26 68 1012.8
20210414210201 37 264 8.0 13.0 0.01 0.26 0.26 68 1012.9
20210414210054 37 265 8.0 13.0 0.01 0.26 0.26 68 1012.8
20210414205958 37 264 8.0 13.0 0.01 0.26 0.26 68 1013.0
20210414205923 37 263 8.0 13.0 0.01 0.26 0.26 68 1013.0
20210414205912 37 261 8.0 13.0 0.01 0.26 0.26 68 1013.0
20210414205851 37 260 7.0 11.0 0.01 0.26 0.26 69 1013.0
20210414205816 37 260 7.0 11.0 0.01 0.26 0.26 69 1013.0
20210414205745 37 259 7.0 11.0 0.01 0.26 0.26 69 1013.0
20210414205723 37 260 8.0 11.0 0.01 0.26 0.26 69 1013.0
20210414205635 37 260 8.0 11.0 0.01 0.26 0.26 70 1013.0
20210414205458 37 258 8.0 11.0 0.01 0.26 0.26 70 1013.0
20210414205257 37 256 8.0 12.0 0.01 0.26 0.26 71 1013.0
20210414205057 37 255 8.0 12.0 0.01 0.26 0.26 71 1013.0
20210414204929 36 254 8.0 12.0 0.01 0.26 0.26 72 1013.0
20210414204824 36 253 8.0 12.0 0.01 0.26 0.26 72 1013.0
20210414204656 36 252 8.0 12.0 0.01 0.26 0.26 73 1013.0
20210414204555 36 251 7.0 12.0 0.01 0.26 0.26 73 1013.0
20210414204500 36 250 7.0 12.0 0.00 0.25 0.25 73 1013.0
20210414204357 37 250 7.0 12.0 0.00 0.25 0.25 73 1013.0
20210414204254 37 249 7.0 12.0 0.00 0.25 0.25 73 1013.0
20210414204156 37 249 7.0 12.0 0.00 0.25 0.25 73 1013.0
20210414204054 37 250 7.0 11.0 0.00 0.25 0.25 73 1013.0
20210414203954 37 250 7.0 12.0 0.00 0.25 0.25 73 1013.0
20210414203854 37 250 7.0 12.0 0.00 0.25 0.25 73 1013.0
20210414203754 37 250 7.0 12.0 0.00 0.25 0.25 73 1013.0
20210414203700 37 250 7.0 12.0 0.00 0.25 0.25 73 1013.0
20210414203625 37 250 7.0 12.0 0.00 0.25 0.25 72 1013.0
20210414203500 37 252 7.0 12.0 0.00 0.25 0.25 72 1013.0
20210414203410 37 254 7.0 12.0 0.00 0.25 0.25 72 1013.1
20210414203253 37 254 7.0 12.0 0.00 0.25 0.25 72 1013.0
20210414203153 37 254 6.0 12.0 0.00 0.25 0.25 71 1013.1
20210414203113 37 252 6.0 12.0 0.00 0.25 0.25 71 1013.1
20210414203049 37 250 6.0 10.0 0.00 0.25 0.25 71 1013.1
20210414203037 37 249 6.0 10.0 0.00 0.25 0.25 71 1013.1
20210414203000 38 251 6.0 10.0 0.00 0.25 0.25 71 1013.1
20210414202955 37 253 6.0 10.0 0.00 0.25 0.25 71 1013.1
20210414202943 37 257 6.0 10.0 0.00 0.25 0.25 70 1013.1
20210414202925 37 258 6.0 11.0 0.00 0.25 0.25 71 1013.1
20210414202906 37 257 6.0 11.0 0.00 0.25 0.25 71 1013.1
20210414202852 37 257 7.0 11.0 0.00 0.25 0.25 71 1013.1
20210414202834 37 260 7.0 11.0 0.00 0.25 0.25 71 1013.1
20210414202633 37 262 7.0 11.0 0.00 0.25 0.25 71 1013.1
20210414202340 37 264 8.0 13.0 0.00 0.25 0.25 71 1013.2
20210414202103 37 268 8.0 13.0 0.00 0.25 0.25 71 1013.2
20210414201936 37 268 8.0 13.0 0.00 0.25 0.25 72 1013.2
20210414201658 37 268 9.0 13.0 0.00 0.25 0.25 72 1013.2
20210414201556 37 267 8.0 13.0 0.00 0.25 0.25 72 1013.2
20210414201513 37 267 8.0 13.0 0.00 0.25 0.25 72 1013.2
20210414201355 37 266 8.0 13.0 0.00 0.25 0.25 72 1013.2
20210414201253 37 267 8.0 13.0 0.00 0.25 0.25 73 1013.2
20210414201156 37 266 8.0 13.0 0.00 0.25 0.25 72 1013.2
20210414201105 37 264 8.0 13.0 0.00 0.25 0.25 72 1013.2
20210414201000 37 265 8.0 12.0 0.00 0.25 0.25 73 1013.2
20210414200854 37 262 8.0 13.0 0.00 0.25 0.25 72 1013.2
20210414200808 37 263 8.0 13.0 0.00 0.25 0.25 72 1013.2
20210414200654 37 262 8.0 13.0 0.00 0.25 0.25 72 1013.2
20210414200554 37 262 8.0 13.0 0.00 0.25 0.25 73 1013.3
20210414200454 37 263 8.0 13.0 0.00 0.25 0.25 73 1013.3
20210414200355 37 265 8.0 13.0 0.00 0.25 0.25 73 1013.3
20210414200255 37 265 8.0 13.0 0.00 0.25 0.25 72 1013.2
20210414200153 37 267 8.0 13.0 0.00 0.25 0.25 72 1013.2
20210414200053 37 268 8.0 13.0 0.00 0.25 0.25 72 1013.3
20210414200011 37 269 8.0 13.0 0.00 0.25 0.25 72 1013.2
20210414195917 37 270 8.0 14.0 0.00 0.25 0.25 72 1013.2
20210414195910 37 268 8.0 16.0 0.00 0.25 0.25 72 1013.3
20210414195900 37 267 8.0 16.0 0.00 0.25 0.25 73 1013.3
20210414195855 37 266 9.0 16.0 0.00 0.25 0.25 73 1013.3
20210414195842 37 264 9.0 16.0 0.00 0.25 0.25 73 1013.3
20210414195837 37 263 10.0 16.0 0.00 0.25 0.25 74 1013.4
20210414195749 37 263 10.0 17.0 0.00 0.25 0.25 74 1013.4
20210414195627 37 263 11.0 17.0 0.00 0.25 0.25 74 1013.4
20210414195428 37 261 11.0 17.0 0.00 0.25 0.25 74 1013.4
20210414195030 37 260 11.0 17.0 0.00 0.25 0.25 74 1013.4
20210414194859 37 259 11.0 17.0 0.00 0.25 0.25 74 1013.4
20210414194814 37 258 11.0 17.0 0.00 0.25 0.25 75 1013.3
20210414194654 36 259 11.0 17.0 0.00 0.25 0.25 75 1013.4
20210414194621 37 260 11.0 17.0 0.00 0.25 0.25 74 1013.4
20210414194456 37 261 11.0 17.0 0.00 0.25 0.25 74 1013.4
20210414194356 37 261 11.0 17.0 0.00 0.25 0.25 74 1013.3
20210414194254 37 260 11.0 16.0 0.00 0.25 0.25 74 1013.4
20210414194155 37 260 10.0 16.0 0.00 0.25 0.25 74 1013.5
20210414194056 37 259 10.0 16.0 0.01 0.25 0.25 73 1013.5
20210414193957 37 259 10.0 16.0 0.01 0.25 0.25 73 1013.4
20210414193856 37 260 9.0 15.0 0.01 0.25 0.25 72 1013.4
20210414193756 37 260 9.0 15.0 0.01 0.25 0.25 72 1013.4
20210414193655 37 259 9.0 13.0 0.01 0.25 0.25 71 1013.5
20210414193553 37 257 9.0 13.0 0.01 0.25 0.25 71 1013.4
20210414193457 37 257 9.0 15.0 0.01 0.25 0.25 70 1013.4
20210414193354 37 256 9.0 15.0 0.01 0.25 0.25 70 1013.4
20210414193257 37 256 10.0 15.0 0.01 0.25 0.25 70 1013.5
20210414193153 37 256 10.0 15.0 0.01 0.25 0.25 70 1013.5
20210414193113 37 257 10.0 15.0 0.01 0.25 0.25 69 1013.5
20210414193040 37 257 10.0 15.0 0.01 0.25 0.25 69 1013.5
20210414193023 37 257 10.0 15.0 0.01 0.25 0.25 68 1013.5
20210414192952 37 258 10.0 15.0 0.01 0.25 0.25 68 1013.5
20210414192933 37 259 10.0 15.0 0.01 0.25 0.25 68 1013.5
20210414192911 37 259 10.0 15.0 0.01 0.25 0.25 68 1013.5
20210414192807 37 259 9.0 15.0 0.01 0.25 0.25 67 1013.5
20210414192733 37 259 9.0 15.0 0.01 0.25 0.25 67 1013.5
20210414192604 37 259 9.0 15.0 0.01 0.25 0.25 66 1013.5
20210414192425 37 258 8.0 12.0 0.01 0.25 0.25 66 1013.5
20210414192244 37 260 8.0 12.0 0.01 0.25 0.25 66 1013.5
20210414192052 37 261 8.0 14.0 0.01 0.25 0.25 66 1013.6
20210414191939 37 261 9.0 15.0 0.01 0.25 0.25 66 1013.6
20210414191840 37 261 9.0 15.0 0.01 0.25 0.25 66 1013.5
20210414191653 37 262 9.0 15.0 0.01 0.25 0.25 66 1013.6
20210414191553 37 263 9.0 15.0 0.01 0.25 0.25 66 1013.6
20210414191454 36 264 10.0 15.0 0.01 0.25 0.25 66 1013.6
20210414191358 36 266 10.0 15.0 0.01 0.25 0.25 67 1013.6
20210414191256 36 268 10.0 15.0 0.01 0.25 0.25 67 1013.6
20210414191154 36 269 11.0 15.0 0.01 0.25 0.25 67 1013.6
20210414191054 36 268 11.0 15.0 0.01 0.25 0.25 66 1013.7
20210414190954 36 268 11.0 15.0 0.01 0.25 0.25 66 1013.7
20210414190854 36 269 10.0 15.0 0.01 0.25 0.25 66 1013.6
20210414190800 36 270 10.0 15.0 0.01 0.25 0.25 66 1013.7
20210414190654 36 270 10.0 15.0 0.01 0.25 0.25 66 1013.7
20210414190554 36 270 10.0 15.0 0.01 0.25 0.25 66 1013.7
20210414190456 36 268 10.0 15.0 0.01 0.25 0.25 65 1013.7
20210414190353 36 267 10.0 15.0 0.01 0.25 0.25 65 1013.8
20210414190254 36 267 10.0 15.0 0.02 0.25 0.25 65 1013.7
20210414190231 36 267 10.0 15.0 0.02 0.25 0.25 65 1013.8
20210414190131 36 267 10.0 15.0 0.02 0.25 0.25 64 1013.8
20210414190040 36 267 10.0 15.0 0.02 0.25 0.25 64 1013.8
20210414190027 36 266 10.0 15.0 0.02 0.25 0.25 64 1013.8
20210414190020 36 265 10.0 15.0 0.02 0.25 0.25 64 1013.9
20210414185942 36 264 10.0 15.0 0.02 0.25 0.25 64 1013.9
20210414185924 36 263 10.0 15.0 0.02 0.25 0.25 64 1013.9
20210414185845 36 264 10.0 15.0 0.02 0.25 0.25 64 1013.9
20210414185756 36 264 10.0 15.0 0.02 0.25 0.25 64 1013.9
20210414185745 36 263 10.0 15.0 0.02 0.25 0.25 64 1013.9
20210414185623 36 263 10.0 15.0 0.02 0.25 0.25 63 1013.9
20210414185454 36 261 11.0 15.0 0.02 0.25 0.25 63 1013.9
20210414185242 36 259 10.0 15.0 0.02 0.25 0.25 63 1013.9
20210414185114 36 260 10.0 14.0 0.02 0.25 0.25 63 1014.0
20210414184936 36 260 10.0 14.0 0.02 0.25 0.25 63 1014.0
20210414184744 36 258 10.0 14.0 0.02 0.25 0.25 63 1014.0
20210414184640 36 258 11.0 17.0 0.02 0.25 0.25 63 1014.0
20210414184514 36 258 11.0 17.0 0.02 0.25 0.25 63 1014.0
20210414184404 36 258 11.0 17.0 0.02 0.25 0.25 63 1014.0
20210414184255 36 258 11.0 17.0 0.02 0.25 0.25 62 1014.0
20210414184157 36 258 11.0 17.0 0.02 0.25 0.25 62 1014.0
20210414184058 36 260 11.0 17.0 0.01 0.24 0.24 62 1014.0
20210414183956 36 261 11.0 17.0 0.01 0.24 0.24 63 1014.0
20210414183856 36 260 12.0 17.0 0.01 0.24 0.24 63 1014.0
20210414183823 36 260 12.0 18.0 0.01 0.24 0.24 63 1014.0
20210414183703 36 261 12.0 18.0 0.01 0.24 0.24 63 1014.0
20210414183619 36 261 12.0 18.0 0.01 0.24 0.24 62 1014.0
20210414183453 36 263 12.0 18.0 0.01 0.24 0.24 62 1014.0
20210414183408 36 264 12.0 18.0 0.01 0.24 0.24 63 1014.0
20210414183312 36 265 12.0 18.0 0.01 0.24 0.24 63 1014.0
20210414183237 36 265 11.0 18.0 0.01 0.24 0.24 62 1014.0
20210414183146 36 263 11.0 18.0 0.01 0.24 0.24 62 1014.0
20210414183107 36 264 11.0 18.0 0.01 0.24 0.24 62 1014.0
20210414183056 36 265 11.0 18.0 0.01 0.24 0.24 62 1014.0
20210414183040 36 266 11.0 18.0 0.01 0.24 0.24 61 1014.0
20210414183029 36 267 10.0 15.0 0.01 0.24 0.24 61 1014.0
20210414182952 36 268 10.0 15.0 0.02 0.24 0.24 61 1014.0
20210414182916 36 267 10.0 15.0 0.02 0.24 0.24 61 1014.0
20210414182855 36 267 10.0 15.0 0.02 0.24 0.24 61 1014.0
20210414182844 36 267 10.0 15.0 0.02 0.24 0.24 61 1014.0
20210414182733 36 267 10.0 15.0 0.02 0.24 0.24 61 1014.0
20210414182436 36 270 10.0 15.0 0.02 0.24 0.24 61 1014.0
20210414182237 36 270 10.0 15.0 0.02 0.24 0.24 62 1014.0
20210414182050 36 270 10.0 15.0 0.02 0.24 0.24 62 1014.1
20210414181856 36 270 10.0 15.0 0.02 0.24 0.24 62 1014.0
20210414181654 36 270 10.0 15.0 0.02 0.24 0.24 63 1014.0
20210414181626 36 270 10.0 15.0 0.03 0.24 0.24 63 1014.0
20210414181511 35 271 10.0 15.0 0.03 0.24 0.24 64 1014.0
20210414181357 35 272 10.0 15.0 0.03 0.24 0.24 64 1014.1
20210414181255 35 272 11.0 17.0 0.03 0.24 0.24 64 1014.0
20210414181154 35 273 11.0 18.0 0.03 0.24 0.24 64 1014.0
20210414181055 35 273 11.0 18.0 0.03 0.24 0.24 64 1014.1
20210414180954 35 273 10.0 18.0 0.03 0.24 0.24 65 1014.0
20210414180855 35 273 11.0 18.0 0.03 0.24 0.24 65 1014.1
20210414180832 35 273 11.0 18.0 0.03 0.24 0.24 65 1014.1
20210414180710 35 273 11.0 18.0 0.04 0.24 0.24 64 1014.1
20210414180640 36 272 11.0 18.0 0.04 0.24 0.24 64 1014.0
20210414180455 36 272 11.0 18.0 0.04 0.24 0.24 64 1014.0
20210414180422 36 271 10.0 18.0 0.03 0.23 0.23 63 1014.0
20210414180330 36 271 10.0 18.0 0.03 0.23 0.23 63 1014.0
20210414180313 36 270 10.0 14.0 0.03 0.23 0.23 63 1014.0
20210414180250 36 269 10.0 15.0 0.03 0.23 0.23 63 1014.0
20210414180150 36 268 10.0 15.0 0.04 0.23 0.23 62 1014.0
20210414180131 36 268 10.0 15.0 0.04 0.23 0.23 62 1014.0
20210414180122 36 268 10.0 15.0 0.04 0.23 0.23 62 1014.0
20210414180033 36 267 10.0 15.0 0.04 0.23 0.23 62 1014.0
20210414175929 36 267 10.0 15.0 0.04 0.23 0.23 62 1014.0
20210414175913 36 265 10.0 15.0 0.04 0.23 0.23 62 1014.0
20210414175854 36 265 10.0 15.0 0.04 0.23 0.23 62 1014.0
20210414175840 36 265 10.0 15.0 0.04 0.23 0.23 61 1014.0
20210414175826 36 265 10.0 15.0 0.04 0.23 0.23 61 1014.1
20210414175654 36 265 10.0 15.0 0.04 0.23 0.23 61 1014.0
20210414175325 36 265 10.0 15.0 0.04 0.23 0.23 61 1014.1
20210414175123 36 265 10.0 15.0 0.04 0.23 0.23 61 1014.0
20210414174939 36 264 10.0 15.0 0.04 0.23 0.23 61 1014.1
20210414174654 36 264 9.0 15.0 0.04 0.23 0.23 61 1014.1
20210414174554 36 265 9.0 15.0 0.04 0.23 0.23 61 1014.1
20210414174508 36 266 9.0 14.0 0.04 0.23 0.23 61 1014.1
20210414174401 36 266 9.0 13.0 0.04 0.23 0.23 61 1014.1
20210414174253 36 265 9.0 13.0 0.04 0.23 0.23 61 1014.1
20210414174153 36 263 9.0 13.0 0.04 0.23 0.23 61 1014.1
20210414174056 36 262 9.0 13.0 0.04 0.23 0.23 61 1014.2
20210414173957 36 260 9.0 13.0 0.04 0.23 0.23 61 1014.2
20210414173855 36 259 9.0 13.0 0.04 0.23 0.23 61 1014.1
20210414173753 36 258 9.0 13.0 0.04 0.23 0.23 62 1014.1
20210414173654 36 257 9.0 16.0 0.04 0.23 0.23 62 1014.2
20210414173559 35 256 10.0 16.0 0.04 0.23 0.23 62 1014.2
20210414173454 35 255 10.0 16.0 0.05 0.23 0.23 62 1014.2
20210414173354 35 255 10.0 16.0 0.05 0.23 0.23 62 1014.2
20210414173301 35 254 11.0 16.0 0.05 0.23 0.23 62 1014.2
20210414173156 35 254 11.0 16.0 0.05 0.23 0.23 62 1014.2
20210414173055 35 255 11.0 16.0 0.05 0.23 0.23 62 1014.2
20210414172958 35 256 11.0 16.0 0.05 0.23 0.23 62 1014.2
20210414172942 35 256 10.0 16.0 0.05 0.23 0.23 62 1014.2
20210414172929 35 255 10.0 16.0 0.05 0.23 0.23 63 1014.2
20210414172914 35 256 10.0 16.0 0.04 0.22 0.22 63 1014.2
20210414172849 35 256 10.0 16.0 0.04 0.22 0.22 63 1014.2
20210414172824 35 256 10.0 16.0 0.04 0.22 0.22 63 1014.2
20210414172753 35 255 10.0 16.0 0.04 0.22 0.22 63 1014.2
20210414172738 35 255 10.0 16.0 0.04 0.22 0.22 63 1014.1
20210414172649 35 256 10.0 16.0 0.04 0.22 0.22 64 1014.2
20210414172520 35 256 10.0 15.0 0.04 0.22 0.22 64 1014.2
20210414172253 35 257 10.0 15.0 0.04 0.22 0.22 64 1014.2
20210414172105 35 260 10.0 15.0 0.05 0.22 0.22 65 1014.2
20210414171913 35 262 10.0 15.0 0.05 0.22 0.22 65 1014.2
20210414171700 35 262 9.0 15.0 0.05 0.22 0.22 65 1014.2
20210414171553 35 264 9.0 15.0 0.04 0.21 0.21 66 1014.2
20210414171454 35 266 9.0 15.0 0.04 0.21 0.21 66 1014.2
20210414171353 35 267 9.0 15.0 0.04 0.21 0.21 66 1014.2
20210414171253 35 269 9.0 15.0 0.04 0.21 0.21 66 1014.1
20210414171155 35 270 8.0 15.0 0.04 0.21 0.21 65 1014.1
20210414171053 35 272 8.0 12.0 0.05 0.21 0.21 65 1014.2
20210414170955 35 271 8.0 12.0 0.05 0.21 0.21 65 1014.2
20210414170853 35 271 8.0 12.0 0.05 0.21 0.21 65 1014.2
20210414170822 35 272 8.0 12.0 0.04 0.20 0.20 65 1014.2
20210414170732 35 273 8.0 12.0 0.04 0.20 0.20 65 1014.2
20210414170717 35 272 8.0 12.0 0.04 0.20 0.20 65 1014.1
20210414170645 35 271 8.0 12.0 0.05 0.20 0.20 65 1014.1
20210414170559 35 271 8.0 12.0 0.05 0.20 0.20 64 1014.2
20210414170540 35 271 8.0 15.0 0.05 0.20 0.20 64 1014.1
20210414170525 35 271 9.0 15.0 0.05 0.20 0.20 64 1014.2
20210414170355 35 271 9.0 15.0 0.04 0.19 0.19 64 1014.2
20210414170255 35 271 9.0 15.0 0.04 0.19 0.19 64 1014.3
20210414170231 35 271 9.0 15.0 0.04 0.19 0.19 63 1014.2
20210414170129 35 271 9.0 15.0 0.05 0.19 0.19 63 1014.2
20210414170118 35 270 9.0 15.0 0.05 0.19 0.19 62 1014.2
20210414170045 35 270 9.0 15.0 0.05 0.19 0.19 62 1014.2
20210414165949 35 269 10.0 15.0 0.05 0.19 0.19 62 1014.2
20210414165941 35 267 10.0 15.0 0.05 0.19 0.19 61 1014.2
20210414165907 35 268 10.0 15.0 0.06 0.19 0.19 60 1014.1
20210414165751 36 268 9.0 15.0 0.06 0.19 0.19 60 1014.1
20210414165628 36 267 9.0 15.0 0.06 0.19 0.19 60 1014.2
20210414165337 36 265 9.0 15.0 0.06 0.19 0.19 60 1014.2
20210414165225 36 264 9.0 15.0 0.06 0.19 0.19 60 1014.2
20210414164948 35 263 9.0 15.0 0.06 0.19 0.19 60 1014.2
20210414164654 35 264 9.0 15.0 0.06 0.19 0.19 60 1014.2
20210414164553 35 264 9.0 15.0 0.07 0.19 0.19 59 1014.2
20210414164455 35 266 9.0 15.0 0.07 0.19 0.19 59 1014.2
20210414164358 35 267 8.0 14.0 0.08 0.19 0.19 59 1014.2
20210414164253 35 267 8.0 13.0 0.08 0.19 0.19 59 1014.3
20210414164156 35 266 9.0 12.0 0.08 0.19 0.19 59 1014.3
20210414164053 35 267 8.0 12.0 0.08 0.19 0.19 59 1014.2
20210414163954 35 270 8.0 12.0 0.08 0.19 0.19 59 1014.2
20210414163855 35 270 8.0 12.0 0.08 0.19 0.19 58 1014.3
20210414163754 35 272 8.0 12.0 0.08 0.19 0.19 58 1014.3
20210414163653 35 272 8.0 12.0 0.08 0.19 0.19 58 1014.3
20210414163554 35 273 8.0 12.0 0.09 0.19 0.19 58 1014.3
20210414163457 35 272 8.0 11.0 0.08 0.18 0.18 58 1014.3
20210414163355 35 270 8.0 14.0 0.08 0.18 0.18 58 1014.3
20210414163310 35 270 8.0 14.0 0.08 0.18 0.18 58 1014.3
20210414163243 35 272 8.0 15.0 0.08 0.18 0.18 58 1014.3
20210414163159 35 272 8.0 15.0 0.08 0.18 0.18 58 1014.3
20210414163128 35 271 9.0 15.0 0.08 0.18 0.18 58 1014.3
20210414163116 35 271 8.0 15.0 0.08 0.18 0.18 58 1014.3
20210414163108 35 272 8.0 15.0 0.09 0.18 0.18 58 1014.3
20210414163054 35 272 8.0 15.0 0.09 0.18 0.18 58 1014.3
20210414163037 35 272 8.0 15.0 0.09 0.18 0.18 58 1014.3
20210414162945 35 273 8.0 15.0 0.09 0.18 0.18 58 1014.3
20210414162916 35 276 8.0 15.0 0.09 0.18 0.18 58 1014.3
20210414162904 35 276 8.0 15.0 0.09 0.18 0.18 58 1014.3
20210414162844 35 275 8.0 13.0 0.09 0.18 0.18 58 1014.3
20210414162632 35 275 8.0 13.0 0.10 0.18 0.18 58 1014.3
20210414162346 35 276 8.0 13.0 0.10 0.18 0.18 58 1014.3
20210414162144 35 273 8.0 14.0 0.09 0.17 0.17 58 1014.3
20210414161840 35 273 8.0 14.0 0.09 0.17 0.17 58 1014.3
20210414161700 34 273 9.0 14.0 0.09 0.17 0.17 58 1014.3
20210414161610 34 273 9.0 14.0 0.09 0.17 0.17 58 1014.3
20210414161454 34 273 9.0 14.0 0.09 0.17 0.17 58 1014.3
20210414161356 34 273 9.0 14.0 0.10 0.17 0.17 58 1014.3
20210414161259 34 273 9.0 14.0 0.10 0.17 0.17 58 1014.3
20210414161158 34 273 8.0 14.0 0.10 0.17 0.17 58 1014.3
20210414161056 34 273 8.0 14.0 0.09 0.16 0.16 58 1014.3
20210414160958 35 272 8.0 14.0 0.09 0.16 0.16 58 1014.3
20210414160855 35 273 8.0 13.0 0.09 0.16 0.16 58 1014.3
20210414160828 35 273 8.0 13.0 0.09 0.16 0.16 58 1014.3
20210414160655 35 272 7.0 13.0 0.09 0.16 0.16 58 1014.3
20210414160556 35 273 7.0 13.0 0.09 0.16 0.16 58 1014.3
20210414160456 35 273 7.0 11.0 0.08 0.15 0.15 58 1014.3
20210414160353 35 272 7.0 11.0 0.08 0.15 0.15 58 1014.3
20210414160253 35 272 7.0 11.0 0.08 0.15 0.15 58 1014.3
20210414160233 35 271 8.0 11.0 0.08 0.15 0.15 58 1014.3
20210414160144 35 271 8.0 11.0 0.08 0.15 0.15 58 1014.3
20210414160115 35 271 8.0 12.0 0.08 0.15 0.15 58 1014.2
20210414160046 35 271 8.0 12.0 0.08 0.15 0.15 58 1014.2
20210414160030 35 271 8.0 12.0 0.07 0.14 0.14 58 1014.2
20210414155938 35 272 8.0 12.0 0.07 0.14 0.14 58 1014.2
20210414155919 35 272 7.0 12.0 0.07 0.14 0.14 58 1014.2
20210414155842 35 271 7.0 12.0 0.08 0.14 0.14 58 1014.2
20210414155834 35 272 7.0 12.0 0.08 0.14 0.14 58 1014.2
20210414155809 35 271 7.0 12.0 0.07 0.13 0.13 58 1014.2
20210414155704 35 270 7.0 12.0 0.07 0.13 0.13 58 1014.2
20210414155523 35 270 6.0 12.0 0.07 0.13 0.13 58 1014.2
20210414155255 35 270 6.0 10.0 0.07 0.13 0.13 58 1014.2
20210414155141 35 270 6.0 9.0 0.07 0.13 0.13 58 1014.2
20210414154924 35 270 5.0 9.0 0.07 0.13 0.13 58 1014.2
20210414154655 35 269 5.0 9.0 0.06 0.12 0.12 58 1014.2
20210414154556 35 268 5.0 9.0 0.07 0.12 0.12 58 1014.2
20210414154454 35 269 5.0 9.0 0.07 0.12 0.12 58 1014.1
20210414154359 35 268 4.0 9.0 0.06 0.11 0.11 58 1014.2
20210414154253 34 269 4.0 9.0 0.06 0.11 0.11 58 1014.1
20210414154152 34 270 4.0 7.0 0.06 0.11 0.11 59 1014.1
20210414154053 34 271 3.0 7.0 0.06 0.11 0.11 59 1014.1
20210414153953 34 272 3.0 7.0 0.06 0.11 0.11 58 1014.1
20210414153854 34 272 3.0 7.0 0.06 0.11 0.11 58 1014.1
20210414153753 34 272 3.0 7.0 0.06 0.11 0.11 59 1014.1
20210414153654 34 272 3.0 7.0 0.07 0.11 0.11 59 1014.1
20210414153559 34 272 3.0 7.0 0.06 0.10 0.10 59 1014.1
20210414153454 34 272 3.0 6.0 0.06 0.10 0.10 59 1014.1
20210414153354 34 273 3.0 6.0 0.06 0.10 0.10 59 1014.0
20210414153331 34 274 3.0 6.0 0.06 0.10 0.10 59 1014.1
20210414153315 34 274 3.0 6.0 0.06 0.10 0.10 59 1014.1
20210414153237 34 274 2.0 6.0 0.06 0.10 0.10 59 1014.1
20210414153120 34 275 2.0 6.0 0.06 0.10 0.10 59 1014.1
20210414153105 34 276 2.0 6.0 0.06 0.10 0.10 59 1014.1
20210414153032 34 277 2.0 4.0 0.06 0.09 0.09 59 1014.1
20210414152952 34 277 2.0 4.0 0.06 0.09 0.09 59 1014.1
20210414152945 34 277 2.0 4.0 0.06 0.09 0.09 59 1014.1
20210414152902 34 277 2.0 3.0 0.06 0.09 0.09 59 1014.1
20210414152833 34 277 2.0 3.0 0.06 0.09 0.09 59 1014.1
20210414152818 34 277 2.0 3.0 0.06 0.09 0.09 59 1014.1
20210414152725 34 277 2.0 3.0 0.06 0.09 0.09 60 1014.1
20210414152401 34 277 2.0 3.0 0.05 0.08 0.08 60 1014.1
20210414152130 34 277 2.0 3.0 0.05 0.08 0.08 60 1014.1
20210414151948 34 277 2.0 3.0 0.05 0.08 0.08 60 1014.1
20210414151801 34 277 2.0 4.0 0.05 0.08 0.08 60 1014.2
20210414151653 34 277 2.0 4.0 0.05 0.08 0.08 60 1014.2
20210414151556 34 277 2.0 4.0 0.05 0.08 0.08 60 1014.2
20210414151456 34 277 2.0 4.0 0.05 0.08 0.08 60 1014.2
20210414151353 34 278 2.0 4.0 0.04 0.07 0.07 60 1014.2
20210414151255 34 278 2.0 4.0 0.04 0.07 0.07 60 1014.2